| time (UTC) | temp C | wind direction | speed KPH | gust KPH | rain 1hr cm | rain 24hr cm | rain mn cm | humidity % | barometer mb |
| 20260506071019 | 14 | 25 | 0.0 | 4.8 | 0.00 | 0.00 | 0.00 | 74 | 1010.3 |
| 20260506070819 | 14 | 188 | 3.2 | 6.4 | 0.00 | 0.00 | 0.00 | 74 | 1010.4 |
| 20260506070719 | 14 | 120 | 3.2 | 6.4 | 0.00 | 0.00 | 0.00 | 74 | 1010.6 |
| 20260506070618 | 14 | 238 | 6.4 | 6.4 | 0.00 | 0.00 | 0.00 | 74 | 1010.4 |
| 20260506070220 | 14 | 163 | 3.2 | 3.2 | 0.00 | 0.00 | 0.00 | 74 | 1010.2 |
| 20260506070119 | 14 | 258 | 3.2 | 3.2 | 0.00 | 0.00 | 0.00 | 74 | 1010.3 |
| 20260506062018 | 15 | 74 | 3.2 | 4.8 | 0.00 | 0.00 | 0.00 | 75 | 1010.2 |
| 20260506061918 | 15 | 107 | 1.6 | 6.4 | 0.00 | 0.00 | 0.00 | 75 | 1010.4 |
| 20260506061618 | 15 | 37 | 1.6 | 4.8 | 0.00 | 0.00 | 0.00 | 75 | 1010.4 |
| 20260506061518 | 15 | 109 | 1.6 | 8.0 | 0.00 | 0.00 | 0.00 | 75 | 1010.2 |
| 20260506061418 | 15 | 216 | 1.6 | 8.0 | 0.00 | 0.00 | 0.00 | 75 | 1010.3 |
| 20260506061118 | 15 | 292 | 1.6 | 9.7 | 0.00 | 0.00 | 0.00 | 74 | 1010.5 |
| 20260506061019 | 15 | 282 | 6.4 | 11.3 | 0.00 | 0.00 | 0.00 | 74 | 1010.0 |
| 20260506060719 | 15 | 330 | 0.0 | 3.2 | 0.00 | 0.00 | 0.00 | 74 | 1010.0 |
| 20260506060419 | 15 | 33 | 3.2 | 6.4 | 0.00 | 0.00 | 0.00 | 74 | 1010.0 |
| 20260506060319 | 15 | 278 | 1.6 | 8.0 | 0.00 | 0.00 | 0.00 | 74 | 1010.2 |
| 20260506060219 | 15 | 64 | 3.2 | 8.0 | 0.00 | 0.00 | 0.00 | 74 | 1010.3 |
| 20260506060119 | 15 | 97 | 0.0 | 4.8 | 0.00 | 0.00 | 0.00 | 74 | 1010.0 |
| 20260506051318 | 16 | 12 | 0.0 | 8.0 | 0.00 | 0.00 | 0.00 | 75 | 1010.1 |
| 20260506051019 | 16 | 50 | 1.6 | 8.0 | 0.00 | 0.00 | 0.00 | 75 | 1010.1 |
| 20260506050918 | 16 | 191 | 3.2 | 8.0 | 0.00 | 0.00 | 0.00 | 75 | 1010.0 |
| 20260506050418 | 16 | 67 | 4.8 | 8.0 | 0.00 | 0.00 | 0.00 | 76 | 1009.9 |
| 20260506050119 | 16 | 316 | 3.2 | 8.0 | 0.00 | 0.00 | 0.00 | 75 | 1010.0 |
| 20260506045019 | 16 | 277 | 1.6 | 8.0 | 0.00 | 0.00 | 0.00 | 75 | 1010.0 |
| 20260506044919 | 16 | 265 | 3.2 | 6.4 | 0.00 | 0.00 | 0.00 | 76 | 1010.1 |
| 20260506044720 | 16 | 305 | 3.2 | 8.0 | 0.00 | 0.00 | 0.00 | 75 | 1010.0 |
| 20260506044619 | 16 | 268 | 6.4 | 8.0 | 0.00 | 0.00 | 0.00 | 75 | 1009.9 |
| 20260506044519 | 16 | 276 | 3.2 | 11.3 | 0.00 | 0.00 | 0.00 | 75 | 1010.1 |
| 20260506044219 | 16 | 273 | 3.2 | 8.0 | 0.00 | 0.00 | 0.00 | 75 | 1009.8 |
| 20260506044120 | 16 | 266 | 1.6 | 14.5 | 0.00 | 0.00 | 0.00 | 75 | 1009.9 |
| 20260506044019 | 16 | 289 | 12.9 | 14.5 | 0.00 | 0.00 | 0.00 | 75 | 1009.9 |
| 20260506043919 | 16 | 133 | 3.2 | 9.7 | 0.00 | 0.00 | 0.00 | 75 | 1009.7 |
| 20260506043819 | 16 | 282 | 1.6 | 9.7 | 0.00 | 0.00 | 0.00 | 75 | 1009.9 |
| 20260506043719 | 16 | 275 | 4.8 | 11.3 | 0.00 | 0.00 | 0.00 | 75 | 1010.1 |
| 20260506043619 | 16 | 286 | 3.2 | 11.3 | 0.00 | 0.00 | 0.00 | 75 | 1010.0 |
| 20260506043420 | 16 | 33 | 3.2 | 4.8 | 0.00 | 0.00 | 0.00 | 75 | 1010.3 |
| 20260506043219 | 16 | 62 | 1.6 | 8.0 | 0.00 | 0.00 | 0.00 | 75 | 1009.7 |
| 20260506043119 | 16 | 257 | 8.0 | 8.0 | 0.00 | 0.00 | 0.00 | 75 | 1009.8 |
| 20260506043019 | 16 | 164 | 3.2 | 8.0 | 0.00 | 0.00 | 0.00 | 76 | 1010.0 |
| 20260506042919 | 16 | 154 | 0.0 | 9.7 | 0.00 | 0.00 | 0.00 | 75 | 1009.7 |
| 20260506042819 | 17 | 34 | 1.6 | 9.7 | 0.00 | 0.00 | 0.00 | 75 | 1009.7 |
| 20260506042720 | 17 | 234 | 6.4 | 14.5 | 0.00 | 0.00 | 0.00 | 75 | 1009.6 |
| 20260506042619 | 17 | 184 | 6.4 | 14.5 | 0.00 | 0.00 | 0.00 | 75 | 1009.5 |
| 20260506042519 | 17 | 167 | 3.2 | 16.1 | 0.00 | 0.00 | 0.00 | 75 | 1009.7 |
| 20260506042419 | 17 | 245 | 6.4 | 9.7 | 0.00 | 0.00 | 0.00 | 75 | 1009.8 |
| 20260506042319 | 17 | 257 | 6.4 | 11.3 | 0.00 | 0.00 | 0.00 | 75 | 1009.8 |
| 20260506042220 | 17 | 287 | 4.8 | 11.3 | 0.00 | 0.00 | 0.00 | 75 | 1009.7 |
| 20260506041719 | 17 | 39 | 3.2 | 9.7 | 0.00 | 0.00 | 0.00 | 75 | 1009.5 |
| 20260506041620 | 17 | 268 | 1.6 | 9.7 | 0.00 | 0.00 | 0.00 | 75 | 1009.6 |
| 20260506041219 | 17 | 318 | 0.0 | 6.4 | 0.00 | 0.00 | 0.00 | 76 | 1009.7 |
| 20260506041119 | 17 | 284 | 4.8 | 9.7 | 0.00 | 0.00 | 0.00 | 75 | 1009.4 |
| 20260506041020 | 17 | 295 | 9.7 | 9.7 | 0.00 | 0.00 | 0.00 | 75 | 1009.5 |
| 20260506040919 | 17 | 191 | 3.2 | 9.7 | 0.00 | 0.00 | 0.00 | 75 | 1009.5 |
| 20260506040820 | 17 | 268 | 4.8 | 8.0 | 0.00 | 0.00 | 0.00 | 75 | 1009.4 |
| 20260506040722 | 17 | 311 | 3.2 | 8.0 | 0.00 | 0.00 | 0.00 | 75 | 1009.4 |
| 20260506040419 | 17 | 228 | 3.2 | 12.9 | 0.00 | 0.00 | 0.00 | 75 | 1009.2 |
| 20260506040319 | 17 | 268 | 4.8 | 11.3 | 0.00 | 0.00 | 0.00 | 75 | 1009.1 |
| 20260506040219 | 17 | 189 | 3.2 | 9.7 | 0.00 | 0.00 | 0.00 | 75 | 1009.1 |
| 20260506040119 | 17 | 92 | 4.8 | 8.0 | 0.00 | 0.00 | 0.00 | 75 | 1009.1 |
| 20260506040019 | 17 | 81 | 3.2 | 8.0 | 0.00 | 0.00 | 0.00 | 75 | 1009.1 |
| 20260506035919 | 17 | 139 | 3.2 | 8.0 | 0.00 | 0.00 | 0.00 | 75 | 1009.2 |
| 20260506035819 | 18 | 58 | 6.4 | 8.0 | 0.00 | 0.00 | 0.00 | 75 | 1009.0 |
| 20260506035719 | 18 | 82 | 0.0 | 6.4 | 0.00 | 0.00 | 0.00 | 74 | 1009.1 |
| 20260506035619 | 18 | 213 | 3.2 | 6.4 | 0.00 | 0.00 | 0.00 | 74 | 1009.3 |
| 20260506035519 | 18 | 229 | 4.8 | 6.4 | 0.00 | 0.00 | 0.00 | 75 | 1009.1 |
| 20260506035419 | 18 | 234 | 1.6 | 4.8 | 0.00 | 0.00 | 0.00 | 75 | 1009.2 |
| 20260506035219 | 18 | 154 | 1.6 | 6.4 | 0.00 | 0.00 | 0.00 | 75 | 1009.0 |
| 20260506035119 | 18 | 129 | 6.4 | 6.4 | 0.00 | 0.00 | 0.00 | 75 | 1009.1 |
| 20260506035019 | 17 | 188 | 1.6 | 6.4 | 0.00 | 0.00 | 0.00 | 75 | 1009.2 |
| 20260506034919 | 17 | 300 | 3.2 | 6.4 | 0.00 | 0.00 | 0.00 | 75 | 1009.3 |
| 20260506034619 | 17 | 344 | 0.0 | 6.4 | 0.00 | 0.00 | 0.00 | 75 | 1009.3 |
| 20260506034119 | 18 | 246 | 3.2 | 9.7 | 0.00 | 0.00 | 0.00 | 75 | 1009.2 |
| 20260506034019 | 18 | 238 | 3.2 | 9.7 | 0.00 | 0.00 | 0.00 | 75 | 1009.1 |
| 20260506033919 | 18 | 265 | 3.2 | 12.9 | 0.00 | 0.00 | 0.00 | 75 | 1009.0 |
| 20260506033820 | 18 | 302 | 12.9 | 12.9 | 0.00 | 0.00 | 0.00 | 75 | 1008.9 |
| 20260506033720 | 18 | 215 | 1.6 | 8.0 | 0.00 | 0.00 | 0.00 | 75 | 1008.9 |
| 20260506033620 | 18 | 285 | 4.8 | 11.3 | 0.00 | 0.00 | 0.00 | 74 | 1009.0 |
| 20260506033519 | 18 | 279 | 6.4 | 11.3 | 0.00 | 0.00 | 0.00 | 74 | 1009.1 |
| 20260506033419 | 18 | 145 | 3.2 | 6.4 | 0.00 | 0.00 | 0.00 | 74 | 1008.9 |
| 20260506033320 | 18 | 195 | 4.8 | 6.4 | 0.00 | 0.00 | 0.00 | 74 | 1009.1 |
| 20260506033219 | 18 | 292 | 0.0 | 9.7 | 0.00 | 0.00 | 0.00 | 74 | 1008.9 |
| 20260506033120 | 18 | 251 | 6.4 | 9.7 | 0.00 | 0.00 | 0.00 | 74 | 1008.9 |
| 20260506033023 | 18 | 257 | 1.6 | 6.4 | 0.00 | 0.00 | 0.00 | 74 | 1008.8 |
| 20260506032919 | 18 | 302 | 3.2 | 6.4 | 0.00 | 0.00 | 0.00 | 74 | 1009.0 |
| 20260506032819 | 18 | 260 | 0.0 | 6.4 | 0.00 | 0.00 | 0.00 | 74 | 1008.8 |
| 20260506032719 | 18 | 198 | 4.8 | 6.4 | 0.00 | 0.00 | 0.00 | 74 | 1008.8 |
| 20260506032620 | 18 | 22 | 3.2 | 12.9 | 0.00 | 0.00 | 0.00 | 74 | 1008.8 |
| 20260506032520 | 18 | 303 | 4.8 | 12.9 | 0.00 | 0.00 | 0.00 | 73 | 1009.0 |
| 20260506032419 | 18 | 254 | 1.6 | 12.9 | 0.00 | 0.00 | 0.00 | 74 | 1009.0 |
| 20260506032119 | 19 | 279 | 0.0 | 8.0 | 0.00 | 0.00 | 0.00 | 73 | 1008.7 |
| 20260506031519 | 19 | 291 | 1.6 | 9.7 | 0.00 | 0.00 | 0.00 | 74 | 1008.6 |
| 20260506031419 | 19 | 263 | 3.2 | 9.7 | 0.00 | 0.00 | 0.00 | 74 | 1008.5 |
| 20260506031320 | 19 | 298 | 4.8 | 8.0 | 0.00 | 0.00 | 0.00 | 74 | 1008.7 |
| 20260506031220 | 19 | 229 | 0.0 | 12.9 | 0.00 | 0.00 | 0.00 | 74 | 1008.8 |
| 20260506030619 | 19 | 249 | 6.4 | 9.7 | 0.00 | 0.00 | 0.00 | 73 | 1008.1 |
| 20260506030520 | 19 | 247 | 8.0 | 8.0 | 0.00 | 0.00 | 0.00 | 73 | 1008.0 |
| 20260506030420 | 20 | 295 | 4.8 | 6.4 | 0.00 | 0.00 | 0.00 | 73 | 1008.2 |
| 20260506030219 | 20 | 296 | 3.2 | 8.0 | 0.00 | 0.00 | 0.00 | 73 | 1008.1 |
| 20260506025918 | 20 | 295 | 6.4 | 9.7 | 0.00 | 0.00 | 0.00 | 73 | 1008.4 |
| 20260506025820 | 20 | 210 | 4.8 | 9.7 | 0.00 | 0.00 | 0.00 | 73 | 1008.4 |
| 20260506025718 | 20 | 272 | 4.8 | 11.3 | 0.00 | 0.00 | 0.00 | 73 | 1008.4 |
| 20260506025619 | 20 | 280 | 8.0 | 12.9 | 0.00 | 0.00 | 0.00 | 72 | 1008.3 |
| 20260506025519 | 20 | 327 | 3.2 | 14.5 | 0.00 | 0.00 | 0.00 | 72 | 1008.4 |
| 20260506025418 | 20 | 283 | 6.4 | 11.3 | 0.00 | 0.00 | 0.00 | 72 | 1008.1 |
| 20260506025318 | 20 | 287 | 8.0 | 9.7 | 0.00 | 0.00 | 0.00 | 72 | 1008.5 |
| 20260506024919 | 20 | 292 | 3.2 | 4.8 | 0.00 | 0.00 | 0.00 | 72 | 1008.0 |
| 20260506024818 | 20 | 304 | 3.2 | 4.8 | 0.00 | 0.00 | 0.00 | 72 | 1007.9 |
| 20260506024719 | 20 | 208 | 1.6 | 8.0 | 0.00 | 0.00 | 0.00 | 72 | 1008.1 |
| 20260506024619 | 20 | 293 | 6.4 | 8.0 | 0.00 | 0.00 | 0.00 | 72 | 1008.1 |
| 20260506024519 | 20 | 289 | 6.4 | 8.0 | 0.00 | 0.00 | 0.00 | 72 | 1007.8 |
| 20260506024420 | 20 | 252 | 3.2 | 8.0 | 0.00 | 0.00 | 0.00 | 72 | 1008.0 |
| 20260506024319 | 20 | 243 | 3.2 | 12.9 | 0.00 | 0.00 | 0.00 | 71 | 1008.0 |
| 20260506024219 | 20 | 273 | 6.4 | 12.9 | 0.00 | 0.00 | 0.00 | 71 | 1007.7 |
| 20260506023919 | 20 | 300 | 3.2 | 6.4 | 0.00 | 0.00 | 0.00 | 71 | 1007.6 |
| 20260506023819 | 21 | 282 | 4.8 | 6.4 | 0.00 | 0.00 | 0.00 | 71 | 1007.9 |
| 20260506023719 | 21 | 288 | 3.2 | 4.8 | 0.00 | 0.00 | 0.00 | 71 | 1007.5 |
| 20260506023619 | 21 | 257 | 1.6 | 4.8 | 0.00 | 0.00 | 0.00 | 71 | 1007.7 |
| 20260506023519 | 21 | 283 | 3.2 | 4.8 | 0.00 | 0.00 | 0.00 | 71 | 1007.4 |
| 20260506023119 | 21 | 280 | 0.0 | 4.8 | 0.00 | 0.00 | 0.00 | 71 | 1007.1 |
| 20260506023019 | 21 | 76 | 1.6 | 4.8 | 0.00 | 0.00 | 0.00 | 71 | 1007.4 |
| 20260506022919 | 21 | 275 | 3.2 | 6.4 | 0.00 | 0.00 | 0.00 | 71 | 1007.2 |
| 20260506022819 | 21 | 330 | 1.6 | 6.4 | 0.00 | 0.00 | 0.00 | 71 | 1007.3 |
| 20260506022720 | 21 | 183 | 3.2 | 9.7 | 0.00 | 0.00 | 0.00 | 72 | 1007.2 |
| 20260506022619 | 21 | 56 | 3.2 | 9.7 | 0.00 | 0.00 | 0.00 | 72 | 1007.4 |
| 20260506022519 | 21 | 274 | 1.6 | 4.8 | 0.00 | 0.00 | 0.00 | 72 | 1007.4 |
| 20260506022419 | 21 | 252 | 0.0 | 3.2 | 0.00 | 0.00 | 0.00 | 72 | 1007.5 |
| 20260506022119 | 21 | 220 | 1.6 | 8.0 | 0.00 | 0.00 | 0.00 | 71 | 1007.0 |
| 20260506022020 | 21 | 249 | 0.0 | 6.4 | 0.00 | 0.00 | 0.00 | 71 | 1007.0 |
| 20260506021919 | 21 | 289 | 3.2 | 6.4 | 0.00 | 0.00 | 0.00 | 71 | 1006.9 |
| 20260506021819 | 21 | 267 | 6.4 | 9.7 | 0.00 | 0.00 | 0.00 | 71 | 1006.8 |
| 20260506021719 | 21 | 143 | 0.0 | 9.7 | 0.00 | 0.00 | 0.00 | 71 | 1007.0 |
| 20260506021419 | 21 | 303 | 3.2 | 11.3 | 0.00 | 0.00 | 0.00 | 71 | 1006.9 |
| 20260506021319 | 21 | 279 | 4.8 | 6.4 | 0.00 | 0.00 | 0.00 | 71 | 1006.8 |
| 20260506021219 | 21 | 221 | 3.2 | 6.4 | 0.00 | 0.00 | 0.00 | 71 | 1006.9 |
| 20260506021119 | 21 | 56 | 3.2 | 6.4 | 0.00 | 0.00 | 0.00 | 71 | 1006.8 |
| 20260506020619 | 21 | 252 | 4.8 | 8.0 | 0.00 | 0.00 | 0.00 | 70 | 1006.6 |
| 20260506020519 | 21 | 283 | 6.4 | 9.7 | 0.00 | 0.00 | 0.00 | 70 | 1006.5 |
| 20260506020419 | 21 | 256 | 4.8 | 9.7 | 0.00 | 0.00 | 0.00 | 70 | 1006.4 |
| 20260506020319 | 22 | 229 | 4.8 | 6.4 | 0.00 | 0.00 | 0.00 | 70 | 1006.5 |
| 20260506020218 | 22 | 133 | 0.0 | 6.4 | 0.00 | 0.00 | 0.00 | 69 | 1006.1 |
| 20260506020120 | 22 | 301 | 3.2 | 4.8 | 0.00 | 0.00 | 0.00 | 69 | 1006.2 |
| 20260506020019 | 22 | 294 | 3.2 | 6.4 | 0.00 | 0.00 | 0.00 | 69 | 1006.1 |
| 20260506015919 | 22 | 228 | 3.2 | 6.4 | 0.00 | 0.00 | 0.00 | 69 | 1006.2 |
| 20260506015819 | 22 | 287 | 3.2 | 6.4 | 0.00 | 0.00 | 0.00 | 69 | 1006.2 |
| 20260506015519 | 22 | 194 | 0.0 | 8.0 | 0.00 | 0.00 | 0.00 | 68 | 1006.4 |
| 20260506015419 | 22 | 295 | 6.4 | 6.4 | 0.00 | 0.00 | 0.00 | 68 | 1006.2 |
| 20260506015319 | 22 | 277 | 4.8 | 8.0 | 0.00 | 0.00 | 0.00 | 68 | 1006.1 |
| 20260506015218 | 22 | 284 | 3.2 | 8.0 | 0.00 | 0.00 | 0.00 | 68 | 1006.1 |
| 20260506015019 | 22 | 345 | 1.6 | 4.8 | 0.00 | 0.00 | 0.00 | 68 | 1006.2 |
| 20260506014919 | 22 | 237 | 0.0 | 8.0 | 0.00 | 0.00 | 0.00 | 67 | 1006.3 |
| 20260506014819 | 22 | 286 | 3.2 | 8.0 | 0.00 | 0.00 | 0.00 | 67 | 1006.4 |
| 20260506014518 | 22 | 275 | 4.8 | 6.4 | 0.00 | 0.00 | 0.00 | 67 | 1006.2 |
| 20260506014319 | 22 | 275 | 0.0 | 4.8 | 0.00 | 0.00 | 0.00 | 67 | 1006.2 |
| 20260506014219 | 22 | 296 | 3.2 | 6.4 | 0.00 | 0.00 | 0.00 | 67 | 1006.2 |
| 20260506014119 | 22 | 139 | 3.2 | 8.0 | 0.00 | 0.00 | 0.00 | 66 | 1006.2 |
| 20260506013820 | 22 | 339 | 1.6 | 3.2 | 0.00 | 0.00 | 0.00 | 66 | 1006.0 |
| 20260506013720 | 22 | 89 | 0.0 | 6.4 | 0.00 | 0.00 | 0.00 | 66 | 1006.0 |
| 20260506013619 | 22 | 204 | 6.4 | 6.4 | 0.00 | 0.00 | 0.00 | 66 | 1006.1 |
| 20260506013219 | 22 | 129 | 3.2 | 4.8 | 0.00 | 0.00 | 0.00 | 66 | 1006.0 |
| 20260506013120 | 22 | 305 | 0.0 | 4.8 | 0.00 | 0.00 | 0.00 | 66 | 1006.3 |
| 20260506013020 | 22 | 231 | 3.2 | 6.4 | 0.00 | 0.00 | 0.00 | 66 | 1006.2 |
| 20260506012919 | 22 | 268 | 4.8 | 6.4 | 0.00 | 0.00 | 0.00 | 66 | 1006.0 |
| 20260506012819 | 22 | 278 | 3.2 | 8.0 | 0.00 | 0.00 | 0.00 | 66 | 1006.2 |
| 20260506012719 | 22 | 250 | 4.8 | 8.0 | 0.00 | 0.00 | 0.00 | 66 | 1006.1 |
| 20260506012419 | 22 | 200 | 3.2 | 4.8 | 0.00 | 0.00 | 0.00 | 66 | 1006.1 |
| 20260506012319 | 22 | 281 | 4.8 | 4.8 | 0.00 | 0.00 | 0.00 | 66 | 1005.7 |
| 20260506012119 | 22 | 343 | 0.0 | 6.4 | 0.00 | 0.00 | 0.00 | 66 | 1006.1 |
| 20260506011919 | 22 | 37 | 3.2 | 4.8 | 0.00 | 0.00 | 0.00 | 66 | 1006.1 |
| 20260506011819 | 22 | 224 | 0.0 | 4.8 | 0.00 | 0.00 | 0.00 | 65 | 1006.0 |
| 20260506011419 | 22 | 266 | 3.2 | 6.4 | 0.00 | 0.00 | 0.00 | 66 | 1005.8 |
| 20260506011320 | 23 | 152 | 3.2 | 6.4 | 0.00 | 0.00 | 0.00 | 66 | 1006.0 |
| 20260506011219 | 23 | 271 | 1.6 | 6.4 | 0.00 | 0.00 | 0.00 | 66 | 1005.9 |
| 20260506011120 | 23 | 294 | 3.2 | 6.4 | 0.00 | 0.00 | 0.00 | 66 | 1005.5 |
| 20260506011019 | 23 | 288 | 1.6 | 6.4 | 0.00 | 0.00 | 0.00 | 66 | 1005.8 |
| 20260506010919 | 23 | 293 | 3.2 | 8.0 | 0.00 | 0.00 | 0.00 | 66 | 1005.7 |
| 20260506010820 | 23 | 325 | 1.6 | 8.0 | 0.00 | 0.00 | 0.00 | 65 | 1005.7 |
| 20260506010720 | 23 | 279 | 3.2 | 4.8 | 0.00 | 0.00 | 0.00 | 66 | 1005.5 |
| 20260506010620 | 23 | 284 | 1.6 | 6.4 | 0.00 | 0.00 | 0.00 | 66 | 1005.4 |
| 20260506010219 | 23 | 229 | 0.0 | 9.7 | 0.00 | 0.00 | 0.00 | 65 | 1005.7 |
| 20260506010119 | 23 | 279 | 6.4 | 9.7 | 0.00 | 0.00 | 0.00 | 65 | 1005.7 |
| 20260506010018 | 23 | 167 | 3.2 | 6.4 | 0.00 | 0.00 | 0.00 | 65 | 1005.4 |
| 20260506005920 | 23 | 291 | 6.4 | 6.4 | 0.00 | 0.00 | 0.00 | 66 | 1005.5 |
| 20260506005819 | 23 | 254 | 1.6 | 8.0 | 0.00 | 0.00 | 0.00 | 66 | 1005.6 |
| 20260506005518 | 23 | 293 | 4.8 | 9.7 | 0.00 | 0.00 | 0.00 | 65 | 1005.4 |
| 20260506005419 | 23 | 264 | 6.4 | 9.7 | 0.00 | 0.00 | 0.00 | 65 | 1005.2 |
| 20260506005319 | 23 | 276 | 4.8 | 9.7 | 0.00 | 0.00 | 0.00 | 65 | 1004.8 |
| 20260506005218 | 23 | 300 | 1.6 | 9.7 | 0.00 | 0.00 | 0.00 | 65 | 1004.9 |
| 20260506005119 | 23 | 264 | 4.8 | 8.0 | 0.00 | 0.00 | 0.00 | 65 | 1004.8 |
| 20260506005019 | 23 | 246 | 6.4 | 6.4 | 0.00 | 0.00 | 0.00 | 65 | 1005.1 |
| 20260506004719 | 23 | 307 | 6.4 | 14.5 | 0.00 | 0.00 | 0.00 | 64 | 1005.4 |
| 20260506004419 | 23 | 337 | 1.6 | 6.4 | 0.00 | 0.00 | 0.00 | 64 | 1005.5 |
| 20260506004319 | 23 | 161 | 4.8 | 8.0 | 0.00 | 0.00 | 0.00 | 64 | 1005.4 |
| 20260506004224 | 23 | 246 | 3.2 | 8.0 | 0.00 | 0.00 | 0.00 | 64 | 1005.5 |
| 20260506004035 | 23 | 297 | 4.8 | 6.4 | 0.00 | 0.00 | 0.00 | 64 | 1005.4 |
| 20260506003620 | 23 | 311 | 0.0 | 8.0 | 0.00 | 0.00 | 0.00 | 64 | 1005.3 |
| 20260506003520 | 23 | 214 | 3.2 | 6.4 | 0.00 | 0.00 | 0.00 | 64 | 1005.4 |
| 20260506003420 | 23 | 85 | 4.8 | 6.4 | 0.00 | 0.00 | 0.00 | 64 | 1005.4 |
| 20260506003119 | 23 | 265 | 4.8 | 6.4 | 0.00 | 0.00 | 0.00 | 64 | 1005.3 |
| 20260506003020 | 23 | 273 | 3.2 | 6.4 | 0.00 | 0.00 | 0.00 | 64 | 1005.2 |
| 20260506002719 | 24 | 286 | 6.4 | 6.4 | 0.00 | 0.00 | 0.00 | 64 | 1005.5 |
| 20260506002620 | 24 | 287 | 4.8 | 6.4 | 0.00 | 0.00 | 0.00 | 64 | 1005.3 |
| 20260506002519 | 24 | 296 | 0.0 | 6.4 | 0.00 | 0.00 | 0.00 | 63 | 1005.1 |
| 20260506002319 | 24 | 280 | 4.8 | 8.0 | 0.00 | 0.00 | 0.00 | 63 | 1005.4 |
| 20260506002219 | 24 | 268 | 8.0 | 8.0 | 0.00 | 0.00 | 0.00 | 63 | 1005.2 |
| 20260506002119 | 24 | 120 | 0.0 | 8.0 | 0.00 | 0.00 | 0.00 | 63 | 1005.2 |
| 20260506002020 | 24 | 280 | 1.6 | 8.0 | 0.00 | 0.00 | 0.00 | 63 | 1005.2 |
| 20260506001619 | 25 | 179 | 3.2 | 6.4 | 0.00 | 0.00 | 0.00 | 62 | 1005.1 |
| 20260506001519 | 25 | 293 | 4.8 | 6.4 | 0.00 | 0.00 | 0.00 | 62 | 1005.1 |
| 20260506001419 | 25 | 219 | 0.0 | 4.8 | 0.00 | 0.00 | 0.00 | 62 | 1005.0 |
| 20260506001320 | 25 | 263 | 3.2 | 6.4 | 0.00 | 0.00 | 0.00 | 62 | 1005.0 |
| 20260506001219 | 25 | 69 | 3.2 | 6.4 | 0.00 | 0.00 | 0.00 | 62 | 1005.1 |
| 20260506001120 | 25 | 241 | 3.2 | 12.9 | 0.00 | 0.00 | 0.00 | 61 | 1005.0 |
| 20260506000920 | 25 | 236 | 3.2 | 9.7 | 0.00 | 0.00 | 0.00 | 61 | 1005.0 |
| 20260506000819 | 25 | 277 | 6.4 | 8.0 | 0.00 | 0.00 | 0.00 | 61 | 1005.0 |
| 20260506000720 | 25 | 70 | 3.2 | 6.4 | 0.00 | 0.00 | 0.00 | 61 | 1005.0 |
| 20260506000620 | 25 | 260 | 4.8 | 8.0 | 0.00 | 0.00 | 0.00 | 60 | 1005.1 |
| 20260506000519 | 25 | 209 | 4.8 | 9.7 | 0.00 | 0.00 | 0.00 | 60 | 1004.8 |
| 20260506000419 | 26 | 298 | 6.4 | 9.7 | 0.00 | 0.00 | 0.00 | 60 | 1004.7 |
| 20260506000119 | 26 | 276 | 3.2 | 6.4 | 0.00 | 0.00 | 0.00 | 60 | 1004.5 |
| 20260505235918 | 26 | 291 | 0.0 | 9.7 | 0.00 | 0.00 | 0.00 | 60 | 1004.3 |
| 20260505235719 | 26 | 278 | 3.2 | 8.0 | 0.00 | 0.00 | 0.00 | 60 | 1004.2 |
| 20260505235618 | 26 | 277 | 3.2 | 6.4 | 0.00 | 0.00 | 0.00 | 60 | 1003.9 |
| 20260505235519 | 26 | 184 | 4.8 | 8.0 | 0.00 | 0.00 | 0.00 | 60 | 1004.2 |
| 20260505235418 | 26 | 285 | 8.0 | 14.5 | 0.00 | 0.00 | 0.00 | 60 | 1003.9 |
| 20260505235319 | 26 | 282 | 6.4 | 14.5 | 0.00 | 0.00 | 0.00 | 60 | 1004.0 |
| 20260505235219 | 26 | 260 | 4.8 | 9.7 | 0.00 | 0.00 | 0.00 | 59 | 1004.2 |
| 20260505235118 | 26 | 279 | 8.0 | 9.7 | 0.00 | 0.00 | 0.00 | 59 | 1004.1 |
| 20260505234919 | 26 | 295 | 4.8 | 8.0 | 0.00 | 0.00 | 0.00 | 59 | 1004.3 |
| 20260505234818 | 26 | 287 | 6.4 | 8.0 | 0.00 | 0.00 | 0.00 | 59 | 1004.0 |
| 20260505234718 | 26 | 265 | 8.0 | 8.0 | 0.00 | 0.00 | 0.00 | 59 | 1003.8 |
| 20260505234618 | 26 | 243 | 6.4 | 9.7 | 0.00 | 0.00 | 0.00 | 58 | 1004.0 |
| 20260505234418 | 26 | 256 | 3.2 | 11.3 | 0.00 | 0.00 | 0.00 | 58 | 1003.9 |
| 20260505234318 | 26 | 233 | 3.2 | 6.4 | 0.00 | 0.00 | 0.00 | 58 | 1004.1 |
| 20260505234218 | 26 | 245 | 0.0 | 9.7 | 0.00 | 0.00 | 0.00 | 58 | 1003.9 |
| 20260505234118 | 26 | 278 | 3.2 | 9.7 | 0.00 | 0.00 | 0.00 | 57 | 1004.0 |
| 20260505234019 | 26 | 267 | 3.2 | 16.1 | 0.00 | 0.00 | 0.00 | 57 | 1004.1 |
| 20260505233919 | 27 | 288 | 3.2 | 16.1 | 0.00 | 0.00 | 0.00 | 57 | 1004.2 |
| 20260505233819 | 27 | 267 | 4.8 | 9.7 | 0.00 | 0.00 | 0.00 | 57 | 1004.2 |
| 20260505233719 | 27 | 313 | 3.2 | 14.5 | 0.00 | 0.00 | 0.00 | 56 | 1004.2 |
| 20260505233619 | 27 | 293 | 6.4 | 14.5 | 0.00 | 0.00 | 0.00 | 56 | 1004.1 |
| 20260505233419 | 27 | 164 | 4.8 | 8.0 | 0.00 | 0.00 | 0.00 | 56 | 1004.2 |
| 20260505233320 | 27 | 260 | 6.4 | 11.3 | 0.00 | 0.00 | 0.00 | 56 | 1004.1 |
| 20260505233220 | 27 | 290 | 6.4 | 12.9 | 0.00 | 0.00 | 0.00 | 56 | 1004.0 |
| 20260505233119 | 27 | 292 | 11.3 | 12.9 | 0.00 | 0.00 | 0.00 | 56 | 1004.1 |
| 20260505233020 | 27 | 279 | 9.7 | 12.9 | 0.00 | 0.00 | 0.00 | 56 | 1004.0 |
| 20260505232719 | 28 | 261 | 6.4 | 6.4 | 0.00 | 0.00 | 0.00 | 55 | 1004.0 |
| 20260505232619 | 28 | 282 | 4.8 | 8.0 | 0.00 | 0.00 | 0.00 | 55 | 1004.0 |
| 20260505232419 | 28 | 294 | 6.4 | 9.7 | 0.00 | 0.00 | 0.00 | 55 | 1003.8 |
| 20260505232119 | 28 | 294 | 8.0 | 16.1 | 0.00 | 0.00 | 0.00 | 52 | 1003.6 |
| 20260505232019 | 28 | 248 | 12.9 | 19.3 | 0.00 | 0.00 | 0.00 | 51 | 1003.7 |
| 20260505231919 | 29 | 273 | 4.8 | 19.3 | 0.00 | 0.00 | 0.00 | 50 | 1003.6 |
| 20260505231819 | 29 | 285 | 6.4 | 12.9 | 0.00 | 0.00 | 0.00 | 50 | 1003.5 |
| 20260505231719 | 29 | 291 | 9.7 | 12.9 | 0.00 | 0.00 | 0.00 | 50 | 1003.6 |
| 20260505231619 | 29 | 236 | 3.2 | 12.9 | 0.00 | 0.00 | 0.00 | 49 | 1003.2 |
| 20260505231519 | 29 | 278 | 4.8 | 12.9 | 0.00 | 0.00 | 0.00 | 49 | 1003.5 |
| 20260505231219 | 29 | 285 | 8.0 | 16.1 | 0.00 | 0.00 | 0.00 | 48 | 1003.3 |
| 20260505231119 | 30 | 284 | 9.7 | 14.5 | 0.00 | 0.00 | 0.00 | 47 | 1003.3 |
| 20260505231019 | 30 | 297 | 11.3 | 14.5 | 0.00 | 0.00 | 0.00 | 47 | 1003.4 |
| 20260505230920 | 30 | 288 | 12.9 | 14.5 | 0.00 | 0.00 | 0.00 | 46 | 1003.2 |
| 20260505230819 | 30 | 281 | 3.2 | 6.4 | 0.00 | 0.00 | 0.00 | 46 | 1003.3 |
| 20260505230719 | 30 | 311 | 4.8 | 11.3 | 0.00 | 0.00 | 0.00 | 46 | 1003.6 |
| 20260505230620 | 30 | 264 | 4.8 | 11.3 | 0.00 | 0.00 | 0.00 | 45 | 1003.5 |
| 20260505230318 | 30 | 285 | 8.0 | 11.3 | 0.00 | 0.00 | 0.00 | 45 | 1003.3 |
| 20260505230019 | 30 | 290 | 3.2 | 9.7 | 0.00 | 0.00 | 0.00 | 44 | 1003.0 |
| 20260505225918 | 30 | 279 | 6.4 | 12.9 | 0.00 | 0.00 | 0.00 | 44 | 1002.7 |
| 20260505225718 | 30 | 279 | 6.4 | 11.3 | 0.00 | 0.00 | 0.00 | 44 | 1003.0 |
| 20260505225619 | 30 | 275 | 8.0 | 12.9 | 0.00 | 0.00 | 0.00 | 44 | 1002.7 |
| 20260505225218 | 31 | 290 | 8.0 | 12.9 | 0.00 | 0.00 | 0.00 | 43 | 1002.8 |
| 20260505225118 | 31 | 285 | 6.4 | 9.7 | 0.00 | 0.00 | 0.00 | 43 | 1002.8 |
| 20260505224819 | 31 | 279 | 11.3 | 11.3 | 0.00 | 0.00 | 0.00 | 43 | 1002.9 |
| 20260505224719 | 31 | 289 | 3.2 | 17.7 | 0.00 | 0.00 | 0.00 | 42 | 1002.8 |
| 20260505224619 | 31 | 280 | 9.7 | 14.5 | 0.00 | 0.00 | 0.00 | 42 | 1003.1 |
| 20260505224518 | 31 | 275 | 9.7 | 14.5 | 0.00 | 0.00 | 0.00 | 42 | 1002.8 |
| 20260505224418 | 31 | 259 | 4.8 | 12.9 | 0.00 | 0.00 | 0.00 | 42 | 1002.7 |
| 20260505224319 | 32 | 294 | 3.2 | 12.9 | 0.00 | 0.00 | 0.00 | 42 | 1002.6 |
| 20260505224218 | 32 | 272 | 8.0 | 14.5 | 0.00 | 0.00 | 0.00 | 43 | 1002.8 |
| 20260505224118 | 32 | 278 | 12.9 | 14.5 | 0.00 | 0.00 | 0.00 | 46 | 1002.8 |
| 20260505224020 | 32 | 285 | 6.4 | 9.7 | 0.00 | 0.00 | 0.00 | 46 | 1002.7 |
| 20260505223919 | 32 | 278 | 3.2 | 6.4 | 0.00 | 0.00 | 0.00 | 46 | 1002.8 |
| 20260505223819 | 32 | 302 | 6.4 | 6.4 | 0.00 | 0.00 | 0.00 | 46 | 1002.7 |
| 20260505223719 | 32 | 300 | 4.8 | 6.4 | 0.00 | 0.00 | 0.00 | 46 | 1002.7 |
| 20260505223619 | 32 | 289 | 4.8 | 8.0 | 0.00 | 0.00 | 0.00 | 45 | 1002.8 |
| 20260505223519 | 32 | 287 | 6.4 | 8.0 | 0.00 | 0.00 | 0.00 | 46 | 1002.5 |
| 20260505223419 | 32 | 291 | 3.2 | 4.8 | 0.00 | 0.00 | 0.00 | 46 | 1002.5 |
| 20260505223319 | 32 | 271 | 3.2 | 3.2 | 0.00 | 0.00 | 0.00 | 47 | 1002.5 |
| 20260505223219 | 32 | 235 | 3.2 | 4.8 | 0.00 | 0.00 | 0.00 | 46 | 1002.6 |
| 20260505222919 | 32 | 261 | 4.8 | 6.4 | 0.00 | 0.00 | 0.00 | 46 | 1002.4 |
| 20260505222819 | 32 | 269 | 0.0 | 6.4 | 0.00 | 0.00 | 0.00 | 46 | 1002.3 |
| 20260505222520 | 32 | 248 | 1.6 | 3.2 | 0.00 | 0.00 | 0.00 | 46 | 1002.3 |
| 20260505222319 | 32 | 279 | 1.6 | 4.8 | 0.00 | 0.00 | 0.00 | 46 | 1002.3 |
| 20260505222019 | 32 | 255 | 6.4 | 8.0 | 0.00 | 0.00 | 0.00 | 46 | 1002.4 |
| 20260505221919 | 32 | 253 | 3.2 | 6.4 | 0.00 | 0.00 | 0.00 | 47 | 1002.1 |
| 20260505221619 | 32 | 269 | 0.0 | 4.8 | 0.00 | 0.00 | 0.00 | 46 | 1002.2 |
| 20260505221519 | 32 | 258 | 3.2 | 6.4 | 0.00 | 0.00 | 0.00 | 45 | 1002.2 |
| 20260505221419 | 32 | 295 | 6.4 | 6.4 | 0.00 | 0.00 | 0.00 | 45 | 1002.1 |
| 20260505221319 | 33 | 265 | 4.8 | 6.4 | 0.00 | 0.00 | 0.00 | 45 | 1002.1 |
| 20260505221119 | 33 | 279 | 3.2 | 6.4 | 0.00 | 0.00 | 0.00 | 45 | 1002.0 |
| 20260505221019 | 33 | 281 | 1.6 | 6.4 | 0.00 | 0.00 | 0.00 | 46 | 1002.2 |
| 20260505220919 | 33 | 274 | 3.2 | 4.8 | 0.00 | 0.00 | 0.00 | 46 | 1002.2 |
| 20260505220319 | 33 | 216 | 3.2 | 4.8 | 0.00 | 0.00 | 0.00 | 47 | 1002.3 |
| 20260505220220 | 33 | 230 | 0.0 | 6.4 | 0.00 | 0.00 | 0.00 | 47 | 1002.4 |
| 20260505220119 | 33 | 277 | 1.6 | 6.4 | 0.00 | 0.00 | 0.00 | 47 | 1002.3 |
| 20260505220020 | 33 | 234 | 3.2 | 6.4 | 0.00 | 0.00 | 0.00 | 47 | 1002.4 |
| 20260505215919 | 33 | 276 | 6.4 | 6.4 | 0.00 | 0.00 | 0.00 | 47 | 1002.4 |
| 20260505215819 | 33 | 264 | 4.8 | 4.8 | 0.00 | 0.00 | 0.00 | 47 | 1002.3 |
| 20260505215620 | 33 | 246 | 1.6 | 8.0 | 0.00 | 0.00 | 0.00 | 47 | 1002.3 |
| 20260505215520 | 33 | 231 | 0.0 | 8.0 | 0.00 | 0.00 | 0.00 | 47 | 1002.3 |
| 20260505215419 | 33 | 275 | 3.2 | 8.0 | 0.00 | 0.00 | 0.00 | 47 | 1002.4 |
| 20260505215319 | 33 | 257 | 3.2 | 8.0 | 0.00 | 0.00 | 0.00 | 47 | 1002.3 |
| 20260505215220 | 33 | 246 | 3.2 | 6.4 | 0.00 | 0.00 | 0.00 | 47 | 1002.5 |
| 20260505215019 | 33 | 272 | 3.2 | 8.0 | 0.00 | 0.00 | 0.00 | 47 | 1002.5 |
| 20260505214919 | 33 | 266 | 6.4 | 8.0 | 0.00 | 0.00 | 0.00 | 47 | 1002.6 |
| 20260505214819 | 33 | 246 | 3.2 | 4.8 | 0.00 | 0.00 | 0.00 | 47 | 1002.4 |
| 20260505214720 | 33 | 229 | 3.2 | 8.0 | 0.00 | 0.00 | 0.00 | 47 | 1002.5 |
| 20260505214420 | 33 | 283 | 4.8 | 4.8 | 0.00 | 0.00 | 0.00 | 47 | 1002.4 |
| 20260505214320 | 32 | 229 | 0.0 | 8.0 | 0.00 | 0.00 | 0.00 | 46 | 1002.3 |
| 20260505214219 | 33 | 269 | 3.2 | 8.0 | 0.00 | 0.00 | 0.00 | 46 | 1002.4 |
| 20260505214119 | 32 | 213 | 1.6 | 4.8 | 0.00 | 0.00 | 0.00 | 47 | 1002.3 |
| 20260505214019 | 32 | 260 | 0.0 | 6.4 | 0.00 | 0.00 | 0.00 | 46 | 1002.5 |
| 20260505213918 | 32 | 274 | 3.2 | 8.0 | 0.00 | 0.00 | 0.00 | 46 | 1002.3 |
| 20260505213820 | 33 | 287 | 3.2 | 12.9 | 0.00 | 0.00 | 0.00 | 47 | 1002.2 |
| 20260505213719 | 33 | 240 | 8.0 | 8.0 | 0.00 | 0.00 | 0.00 | 47 | 1002.6 |
| 20260505213619 | 33 | 264 | 4.8 | 8.0 | 0.00 | 0.00 | 0.00 | 48 | 1002.4 |
| 20260505213320 | 32 | 220 | 4.8 | 9.7 | 0.00 | 0.00 | 0.00 | 47 | 1002.3 |
| 20260505212920 | 32 | 249 | 9.7 | 9.7 | 0.00 | 0.00 | 0.00 | 47 | 1002.7 |
| 20260505212819 | 32 | 209 | 3.2 | 11.3 | 0.00 | 0.00 | 0.00 | 47 | 1002.7 |
| 20260505212519 | 32 | 260 | 3.2 | 6.4 | 0.00 | 0.00 | 0.00 | 48 | 1002.4 |
| 20260505212420 | 32 | 229 | 4.8 | 6.4 | 0.00 | 0.00 | 0.00 | 48 | 1002.7 |
| 20260505212319 | 32 | 276 | 3.2 | 9.7 | 0.00 | 0.00 | 0.00 | 48 | 1002.5 |
| 20260505212219 | 32 | 284 | 6.4 | 6.4 | 0.00 | 0.00 | 0.00 | 48 | 1002.5 |
| 20260505212119 | 32 | 283 | 3.2 | 4.8 | 0.00 | 0.00 | 0.00 | 49 | 1002.8 |
| 20260505212018 | 32 | 275 | 1.6 | 6.4 | 0.00 | 0.00 | 0.00 | 49 | 1002.6 |
| 20260505211919 | 32 | 245 | 3.2 | 6.4 | 0.00 | 0.00 | 0.00 | 49 | 1002.7 |
| 20260505211618 | 32 | 297 | 6.4 | 6.4 | 0.00 | 0.00 | 0.00 | 48 | 1002.8 |
| 20260505211519 | 32 | 235 | 3.2 | 6.4 | 0.00 | 0.00 | 0.00 | 47 | 1002.9 |
| 20260505211418 | 32 | 296 | 1.6 | 8.0 | 0.00 | 0.00 | 0.00 | 48 | 1002.8 |
| 20260505211318 | 32 | 252 | 3.2 | 8.0 | 0.00 | 0.00 | 0.00 | 48 | 1002.7 |
| 20260505211219 | 32 | 267 | 0.0 | 8.0 | 0.00 | 0.00 | 0.00 | 48 | 1002.6 |
| 20260505210918 | 32 | 257 | 9.7 | 9.7 | 0.00 | 0.00 | 0.00 | 48 | 1003.0 |
| 20260505210823 | 32 | 228 | 3.2 | 4.8 | 0.00 | 0.00 | 0.00 | 48 | 1002.8 |
| 20260505210719 | 32 | 183 | 1.6 | 6.4 | 0.00 | 0.00 | 0.00 | 49 | 1002.8 |
| 20260505210420 | 32 | 277 | 0.0 | 8.0 | 0.00 | 0.00 | 0.00 | 49 | 1002.8 |
| 20260505210319 | 32 | 245 | 4.8 | 8.0 | 0.00 | 0.00 | 0.00 | 50 | 1002.8 |
| 20260505205719 | 32 | 271 | 3.2 | 11.3 | 0.00 | 0.00 | 0.00 | 50 | 1002.9 |
| 20260505205619 | 32 | 210 | 4.8 | 9.7 | 0.00 | 0.00 | 0.00 | 50 | 1002.9 |
| 20260505205319 | 32 | 280 | 6.4 | 8.0 | 0.00 | 0.00 | 0.00 | 48 | 1002.8 |
| 20260505205219 | 32 | 252 | 3.2 | 11.3 | 0.00 | 0.00 | 0.00 | 48 | 1003.0 |
| 20260505205120 | 32 | 258 | 9.7 | 11.3 | 0.00 | 0.00 | 0.00 | 48 | 1003.0 |
| 20260505205019 | 32 | 265 | 3.2 | 4.8 | 0.00 | 0.00 | 0.00 | 49 | 1003.0 |
| 20260505204719 | 32 | 243 | 3.2 | 11.3 | 0.00 | 0.00 | 0.00 | 49 | 1003.0 |
| 20260505204519 | 32 | 280 | 6.4 | 6.4 | 0.00 | 0.00 | 0.00 | 49 | 1003.0 |
| 20260505204319 | 32 | 257 | 3.2 | 4.8 | 0.00 | 0.00 | 0.00 | 50 | 1002.9 |
| 20260505204220 | 32 | 256 | 1.6 | 6.4 | 0.00 | 0.00 | 0.00 | 50 | 1003.0 |
| 20260505204119 | 32 | 207 | 3.2 | 6.4 | 0.00 | 0.00 | 0.00 | 50 | 1002.8 |
| 20260505204020 | 32 | 251 | 3.2 | 6.4 | 0.00 | 0.00 | 0.00 | 50 | 1003.1 |
| 20260505203719 | 32 | 209 | 6.4 | 8.0 | 0.00 | 0.00 | 0.00 | 50 | 1003.2 |
| 20260505203620 | 32 | 275 | 0.0 | 6.4 | 0.00 | 0.00 | 0.00 | 50 | 1003.2 |
| 20260505203520 | 32 | 345 | 1.6 | 8.0 | 0.00 | 0.00 | 0.00 | 50 | 1003.3 |
| 20260505203420 | 32 | 238 | 3.2 | 8.0 | 0.00 | 0.00 | 0.00 | 51 | 1003.3 |
| 20260505203319 | 32 | 280 | 4.8 | 6.4 | 0.00 | 0.00 | 0.00 | 53 | 1003.4 |
| 20260505203219 | 32 | 243 | 3.2 | 4.8 | 0.00 | 0.00 | 0.00 | 53 | 1003.2 |
| 20260505203119 | 32 | 289 | 3.2 | 4.8 | 0.00 | 0.00 | 0.00 | 54 | 1003.3 |
| 20260505203019 | 32 | 245 | 4.8 | 4.8 | 0.00 | 0.00 | 0.00 | 54 | 1003.4 |
| 20260505202719 | 31 | 253 | 1.6 | 8.0 | 0.00 | 0.00 | 0.00 | 54 | 1003.4 |
| 20260505202619 | 31 | 237 | 4.8 | 8.0 | 0.00 | 0.00 | 0.00 | 54 | 1003.6 |
| 20260505202519 | 31 | 282 | 3.2 | 8.0 | 0.00 | 0.00 | 0.00 | 54 | 1003.4 |
| 20260505202119 | 31 | 231 | 3.2 | 8.0 | 0.00 | 0.00 | 0.00 | 55 | 1003.4 |
| 20260505202020 | 31 | 231 | 4.8 | 9.7 | 0.00 | 0.00 | 0.00 | 55 | 1003.3 |
| 20260505201920 | 31 | 258 | 9.7 | 9.7 | 0.00 | 0.00 | 0.00 | 56 | 1003.4 |
| 20260505201819 | 31 | 249 | 0.0 | 3.2 | 0.00 | 0.00 | 0.00 | 56 | 1003.4 |
| 20260505201719 | 31 | 265 | 1.6 | 3.2 | 0.00 | 0.00 | 0.00 | 56 | 1003.4 |
| 20260505201619 | 31 | 156 | 0.0 | 4.8 | 0.00 | 0.00 | 0.00 | 56 | 1003.5 |
| 20260505201519 | 31 | 233 | 3.2 | 6.4 | 0.00 | 0.00 | 0.00 | 55 | 1003.4 |
| 20260505201220 | 31 | 169 | 4.8 | 11.3 | 0.00 | 0.00 | 0.00 | 56 | 1003.5 |
| 20260505201120 | 31 | 252 | 3.2 | 12.9 | 0.00 | 0.00 | 0.00 | 56 | 1003.7 |
| 20260505200620 | 31 | 194 | 1.6 | 8.0 | 0.00 | 0.00 | 0.00 | 54 | 1003.6 |
| 20260505200519 | 31 | 284 | 4.8 | 8.0 | 0.00 | 0.00 | 0.00 | 55 | 1003.4 |
| 20260505200319 | 31 | 246 | 0.0 | 6.4 | 0.00 | 0.00 | 0.00 | 56 | 1003.5 |
| 20260505200219 | 31 | 268 | 3.2 | 6.4 | 0.00 | 0.00 | 0.00 | 56 | 1003.4 |
| 20260505200119 | 31 | 242 | 1.6 | 8.0 | 0.00 | 0.00 | 0.00 | 56 | 1003.5 |
| 20260505200019 | 31 | 207 | 3.2 | 11.3 | 0.00 | 0.00 | 0.00 | 55 | 1003.7 |
| 20260505195918 | 31 | 197 | 8.0 | 12.9 | 0.00 | 0.00 | 0.00 | 55 | 1003.5 |
| 20260505195819 | 31 | 264 | 3.2 | 8.0 | 0.00 | 0.00 | 0.00 | 56 | 1003.5 |
| 20260505195520 | 31 | 348 | 0.0 | 8.0 | 0.00 | 0.00 | 0.00 | 57 | 1003.5 |
| 20260505195119 | 31 | 222 | 4.8 | 8.0 | 0.00 | 0.00 | 0.00 | 56 | 1003.4 |
| 20260505195019 | 31 | 236 | 3.2 | 8.0 | 0.00 | 0.00 | 0.00 | 56 | 1003.5 |
| 20260505194919 | 31 | 296 | 8.0 | 8.0 | 0.00 | 0.00 | 0.00 | 56 | 1003.5 |
| 20260505194819 | 31 | 263 | 4.8 | 6.4 | 0.00 | 0.00 | 0.00 | 56 | 1003.6 |
| 20260505194618 | 31 | 264 | 4.8 | 6.4 | 0.00 | 0.00 | 0.00 | 56 | 1003.7 |
| 20260505194519 | 31 | 272 | 4.8 | 8.0 | 0.00 | 0.00 | 0.00 | 57 | 1003.7 |
| 20260505194218 | 31 | 271 | 1.6 | 9.7 | 0.00 | 0.00 | 0.00 | 57 | 1003.7 |
| 20260505194019 | 31 | 226 | 3.2 | 8.0 | 0.00 | 0.00 | 0.00 | 57 | 1003.6 |
| 20260505193919 | 31 | 244 | 3.2 | 8.0 | 0.00 | 0.00 | 0.00 | 57 | 1003.6 |
| 20260505193820 | 30 | 279 | 6.4 | 6.4 | 0.00 | 0.00 | 0.00 | 57 | 1003.5 |
| 20260505193719 | 30 | 14 | 0.0 | 4.8 | 0.00 | 0.00 | 0.00 | 58 | 1003.7 |
| 20260505193619 | 30 | 304 | 3.2 | 4.8 | 0.00 | 0.00 | 0.00 | 57 | 1003.8 |
| 20260505193520 | 30 | 344 | 3.2 | 8.0 | 0.00 | 0.00 | 0.00 | 57 | 1003.7 |
| 20260505193219 | 30 | 235 | 1.6 | 8.0 | 0.00 | 0.00 | 0.00 | 57 | 1004.0 |
| 20260505193120 | 30 | 249 | 6.4 | 8.0 | 0.00 | 0.00 | 0.00 | 57 | 1003.8 |
| 20260505193020 | 30 | 292 | 4.8 | 6.4 | 0.00 | 0.00 | 0.00 | 57 | 1003.8 |
| 20260505192920 | 30 | 273 | 4.8 | 6.4 | 0.00 | 0.00 | 0.00 | 57 | 1003.7 |
| 20260505192819 | 30 | 224 | 3.2 | 6.4 | 0.00 | 0.00 | 0.00 | 57 | 1003.8 |
| 20260505192720 | 30 | 218 | 4.8 | 6.4 | 0.00 | 0.00 | 0.00 | 58 | 1003.7 |
| 20260505192619 | 30 | 222 | 1.6 | 9.7 | 0.00 | 0.00 | 0.00 | 58 | 1003.7 |
| 20260505192519 | 30 | 289 | 3.2 | 9.7 | 0.00 | 0.00 | 0.00 | 57 | 1003.7 |
| 20260505192320 | 30 | 239 | 6.4 | 11.3 | 0.00 | 0.00 | 0.00 | 58 | 1003.8 |
| 20260505192219 | 30 | 221 | 3.2 | 6.4 | 0.00 | 0.00 | 0.00 | 59 | 1003.7 |
| 20260505191719 | 30 | 166 | 3.2 | 4.8 | 0.00 | 0.00 | 0.00 | 59 | 1003.8 |
| 20260505191619 | 30 | 192 | 4.8 | 9.7 | 0.00 | 0.00 | 0.00 | 59 | 1003.6 |
| 20260505191519 | 30 | 6 | 3.2 | 9.7 | 0.00 | 0.00 | 0.00 | 59 | 1003.9 |
| 20260505191419 | 30 | 204 | 4.8 | 9.7 | 0.00 | 0.00 | 0.00 | 59 | 1003.8 |
| 20260505191319 | 30 | 307 | 3.2 | 6.4 | 0.00 | 0.00 | 0.00 | 59 | 1003.8 |
| 20260505191219 | 30 | 145 | 1.6 | 6.4 | 0.00 | 0.00 | 0.00 | 59 | 1003.8 |
| 20260505191120 | 30 | 224 | 3.2 | 8.0 | 0.00 | 0.00 | 0.00 | 59 | 1003.8 |
| 20260505191019 | 30 | 49 | 1.6 | 6.4 | 0.00 | 0.00 | 0.00 | 60 | 1003.7 |
| 20260505190919 | 30 | 200 | 3.2 | 4.8 | 0.00 | 0.00 | 0.00 | 60 | 1003.8 |
| 20260505190719 | 30 | 213 | 4.8 | 11.3 | 0.00 | 0.00 | 0.00 | 60 | 1003.7 |
| 20260505190619 | 30 | 231 | 4.8 | 11.3 | 0.00 | 0.00 | 0.00 | 60 | 1003.6 |
| 20260505190318 | 30 | 169 | 1.6 | 8.0 | 0.00 | 0.00 | 0.00 | 59 | 1003.7 |
| 20260505190218 | 30 | 284 | 3.2 | 8.0 | 0.00 | 0.00 | 0.00 | 60 | 1003.8 |
| 20260505190119 | 30 | 207 | 4.8 | 6.4 | 0.00 | 0.00 | 0.00 | 60 | 1003.8 |
| 20260505185818 | 30 | 252 | 3.2 | 8.0 | 0.00 | 0.00 | 0.00 | 61 | 1003.9 |
| 20260505185719 | 30 | 210 | 3.2 | 8.0 | 0.00 | 0.00 | 0.00 | 61 | 1003.9 |
| 20260505185619 | 29 | 201 | 3.2 | 6.4 | 0.00 | 0.00 | 0.00 | 61 | 1003.9 |
| 20260505185518 | 29 | 208 | 3.2 | 6.4 | 0.00 | 0.00 | 0.00 | 62 | 1003.9 |
| 20260505185419 | 29 | 169 | 0.0 | 6.4 | 0.00 | 0.00 | 0.00 | 62 | 1003.9 |
| 20260505185319 | 29 | 283 | 1.6 | 6.4 | 0.00 | 0.00 | 0.00 | 62 | 1004.0 |
| 20260505185219 | 29 | 218 | 4.8 | 8.0 | 0.00 | 0.00 | 0.00 | 62 | 1004.0 |
| 20260505184918 | 29 | 211 | 1.6 | 8.0 | 0.00 | 0.00 | 0.00 | 61 | 1003.9 |
| 20260505184818 | 29 | 233 | 4.8 | 8.0 | 0.00 | 0.00 | 0.00 | 61 | 1004.1 |
| 20260505184720 | 29 | 213 | 0.0 | 8.0 | 0.00 | 0.00 | 0.00 | 61 | 1004.1 |
| 20260505184619 | 29 | 301 | 1.6 | 8.0 | 0.00 | 0.00 | 0.00 | 61 | 1004.1 |
| 20260505184521 | 29 | 204 | 3.2 | 6.4 | 0.00 | 0.00 | 0.00 | 62 | 1004.0 |
| 20260505184419 | 29 | 222 | 0.0 | 6.4 | 0.00 | 0.00 | 0.00 | 62 | 1004.1 |
| 20260505184319 | 29 | 262 | 3.2 | 6.4 | 0.00 | 0.00 | 0.00 | 62 | 1004.0 |
| 20260505184219 | 29 | 260 | 3.2 | 6.4 | 0.00 | 0.00 | 0.00 | 62 | 1004.1 |
| 20260505184118 | 29 | 292 | 4.8 | 6.4 | 0.00 | 0.00 | 0.00 | 62 | 1004.3 |
| 20260505184019 | 29 | 50 | 0.0 | 4.8 | 0.00 | 0.00 | 0.00 | 62 | 1004.2 |
| 20260505183719 | 29 | 229 | 3.2 | 6.4 | 0.00 | 0.00 | 0.00 | 62 | 1004.1 |
| 20260505183620 | 29 | 217 | 6.4 | 6.4 | 0.00 | 0.00 | 0.00 | 62 | 1004.1 |
| 20260505183319 | 28 | 225 | 3.2 | 8.0 | 0.00 | 0.00 | 0.00 | 62 | 1004.2 |
| 20260505183019 | 29 | 250 | 1.6 | 6.4 | 0.00 | 0.00 | 0.00 | 62 | 1003.9 |
| 20260505182720 | 29 | 255 | 0.0 | 8.0 | 0.00 | 0.00 | 0.00 | 62 | 1004.0 |
| 20260505182620 | 29 | 212 | 8.0 | 8.0 | 0.00 | 0.00 | 0.00 | 62 | 1004.0 |
| 20260505182520 | 29 | 212 | 3.2 | 8.0 | 0.00 | 0.00 | 0.00 | 62 | 1003.8 |
| 20260505182420 | 29 | 317 | 4.8 | 4.8 | 0.00 | 0.00 | 0.00 | 62 | 1003.9 |
| 20260505182319 | 29 | 250 | 3.2 | 9.7 | 0.00 | 0.00 | 0.00 | 61 | 1004.1 |
| 20260505182219 | 29 | 259 | 3.2 | 9.7 | 0.00 | 0.00 | 0.00 | 62 | 1004.1 |
| 20260505182119 | 29 | 247 | 0.0 | 6.4 | 0.00 | 0.00 | 0.00 | 62 | 1003.9 |
| 20260505182019 | 29 | 329 | 3.2 | 6.4 | 0.00 | 0.00 | 0.00 | 62 | 1004.0 |
| 20260505181919 | 28 | 184 | 4.8 | 6.4 | 0.00 | 0.00 | 0.00 | 62 | 1004.2 |
| 20260505181620 | 28 | 179 | 3.2 | 9.7 | 0.00 | 0.00 | 0.00 | 62 | 1004.2 |
| 20260505181520 | 28 | 4 | 1.6 | 9.7 | 0.00 | 0.00 | 0.00 | 62 | 1004.2 |
| 20260505181419 | 28 | 212 | 0.0 | 8.0 | 0.00 | 0.00 | 0.00 | 62 | 1004.0 |
| 20260505181120 | 28 | 205 | 3.2 | 8.0 | 0.00 | 0.00 | 0.00 | 63 | 1004.2 |
| 20260505180820 | 28 | 207 | 6.4 | 8.0 | 0.00 | 0.00 | 0.00 | 63 | 1004.2 |
| 20260505180321 | 28 | 185 | 1.6 | 9.7 | 0.00 | 0.00 | 0.00 | 63 | 1004.0 |
| 20260505180019 | 28 | 253 | 4.8 | 8.0 | 0.00 | 0.00 | 0.00 | 64 | 1004.0 |
| 20260505175918 | 28 | 234 | 3.2 | 8.0 | 0.00 | 0.00 | 0.00 | 64 | 1003.8 |
| 20260505175419 | 28 | 198 | 4.8 | 9.7 | 0.00 | 0.00 | 0.00 | 64 | 1004.2 |
| 20260505175119 | 28 | 231 | 1.6 | 8.0 | 0.00 | 0.00 | 0.00 | 64 | 1004.2 |
| 20260505175019 | 28 | 250 | 4.8 | 9.7 | 0.00 | 0.00 | 0.00 | 64 | 1004.2 |
| 20260505174918 | 28 | 190 | 6.4 | 9.7 | 0.00 | 0.00 | 0.00 | 65 | 1004.0 |
| 20260505174619 | 28 | 359 | 0.0 | 11.3 | 0.00 | 0.00 | 0.00 | 64 | 1004.1 |
| 20260505174419 | 28 | 175 | 3.2 | 6.4 | 0.00 | 0.00 | 0.00 | 65 | 1004.3 |
| 20260505174319 | 28 | 193 | 1.6 | 6.4 | 0.00 | 0.00 | 0.00 | 65 | 1004.2 |
| 20260505174219 | 28 | 212 | 1.6 | 6.4 | 0.00 | 0.00 | 0.00 | 65 | 1004.1 |
| 20260505173919 | 27 | 209 | 1.6 | 8.0 | 0.00 | 0.00 | 0.00 | 66 | 1004.4 |
| 20260505173819 | 27 | 237 | 8.0 | 8.0 | 0.00 | 0.00 | 0.00 | 67 | 1004.2 |
| 20260505173519 | 27 | 187 | 3.2 | 8.0 | 0.00 | 0.00 | 0.00 | 67 | 1004.1 |
| 20260505173419 | 27 | 236 | 3.2 | 9.7 | 0.00 | 0.00 | 0.00 | 66 | 1004.3 |
| 20260505173119 | 27 | 216 | 6.4 | 9.7 | 0.00 | 0.00 | 0.00 | 67 | 1004.6 |
| 20260505173019 | 27 | 120 | 3.2 | 8.0 | 0.00 | 0.00 | 0.00 | 67 | 1004.3 |
| 20260505172919 | 27 | 200 | 6.4 | 11.3 | 0.00 | 0.00 | 0.00 | 66 | 1004.3 |
| 20260505172819 | 27 | 228 | 9.7 | 9.7 | 0.00 | 0.00 | 0.00 | 67 | 1004.4 |
| 20260505172620 | 27 | 308 | 4.8 | 9.7 | 0.00 | 0.00 | 0.00 | 67 | 1004.4 |
| 20260505172319 | 27 | 126 | 3.2 | 8.0 | 0.00 | 0.00 | 0.00 | 67 | 1004.4 |
| 20260505172220 | 27 | 242 | 4.8 | 8.0 | 0.00 | 0.00 | 0.00 | 67 | 1004.4 |
| 20260505172119 | 27 | 258 | 3.2 | 6.4 | 0.00 | 0.00 | 0.00 | 68 | 1004.3 |
| 20260505171619 | 27 | 217 | 8.0 | 8.0 | 0.00 | 0.00 | 0.00 | 68 | 1004.4 |
| 20260505171219 | 27 | 183 | 6.4 | 12.9 | 0.00 | 0.00 | 0.00 | 68 | 1004.2 |
| 20260505171119 | 27 | 212 | 4.8 | 12.9 | 0.00 | 0.00 | 0.00 | 68 | 1004.4 |
| 20260505170819 | 27 | 230 | 8.0 | 9.7 | 0.00 | 0.00 | 0.00 | 69 | 1004.5 |
| 20260505170519 | 26 | 202 | 3.2 | 8.0 | 0.00 | 0.00 | 0.00 | 68 | 1004.6 |
| 20260505170419 | 26 | 204 | 4.8 | 6.4 | 0.00 | 0.00 | 0.00 | 69 | 1004.6 |
| 20260505170318 | 26 | 242 | 4.8 | 9.7 | 0.00 | 0.00 | 0.00 | 68 | 1004.7 |
| 20260505170218 | 26 | 293 | 4.8 | 8.0 | 0.00 | 0.00 | 0.00 | 68 | 1004.6 |
| 20260505170118 | 26 | 247 | 4.8 | 8.0 | 0.00 | 0.00 | 0.00 | 68 | 1004.5 |
| 20260505170019 | 26 | 235 | 6.4 | 8.0 | 0.00 | 0.00 | 0.00 | 68 | 1004.6 |
| 20260505165918 | 27 | 338 | 3.2 | 8.0 | 0.00 | 0.00 | 0.00 | 68 | 1004.3 |
| 20260505165818 | 26 | 199 | 4.8 | 8.0 | 0.00 | 0.00 | 0.00 | 68 | 1004.7 |
| 20260505165118 | 27 | 275 | 4.8 | 8.0 | 0.00 | 0.00 | 0.00 | 68 | 1004.3 |
| 20260505165019 | 27 | 208 | 4.8 | 9.7 | 0.00 | 0.00 | 0.00 | 68 | 1004.4 |
| 20260505164919 | 27 | 226 | 3.2 | 9.7 | 0.00 | 0.00 | 0.00 | 68 | 1004.5 |
| 20260505164818 | 26 | 231 | 1.6 | 9.7 | 0.00 | 0.00 | 0.00 | 68 | 1004.5 |
| 20260505164718 | 26 | 183 | 3.2 | 9.7 | 0.00 | 0.00 | 0.00 | 69 | 1004.5 |
| 20260505164619 | 26 | 193 | 3.2 | 6.4 | 0.00 | 0.00 | 0.00 | 69 | 1004.4 |
| 20260505164419 | 26 | 290 | 0.0 | 6.4 | 0.00 | 0.00 | 0.00 | 69 | 1004.6 |
| 20260505164318 | 26 | 19 | 1.6 | 8.0 | 0.00 | 0.00 | 0.00 | 69 | 1004.6 |
| 20260505164219 | 26 | 303 | 3.2 | 8.0 | 0.00 | 0.00 | 0.00 | 69 | 1004.6 |
| 20260505164118 | 26 | 109 | 0.0 | 8.0 | 0.00 | 0.00 | 0.00 | 69 | 1004.4 |
| 20260505164019 | 26 | 294 | 3.2 | 8.0 | 0.00 | 0.00 | 0.00 | 69 | 1004.5 |
| 20260505163919 | 26 | 189 | 3.2 | 8.0 | 0.00 | 0.00 | 0.00 | 70 | 1004.4 |
| 20260505163819 | 26 | 199 | 6.4 | 6.4 | 0.00 | 0.00 | 0.00 | 70 | 1004.5 |
| 20260505163720 | 26 | 202 | 3.2 | 6.4 | 0.00 | 0.00 | 0.00 | 70 | 1004.6 |
| 20260505163619 | 26 | 229 | 4.8 | 9.7 | 0.00 | 0.00 | 0.00 | 70 | 1004.3 |
| 20260505163519 | 26 | 180 | 6.4 | 9.7 | 0.00 | 0.00 | 0.00 | 70 | 1004.4 |
| 20260505163419 | 26 | 212 | 4.8 | 12.9 | 0.00 | 0.00 | 0.00 | 69 | 1004.5 |
| 20260505163121 | 26 | 303 | 3.2 | 12.9 | 0.00 | 0.00 | 0.00 | 69 | 1004.5 |
| 20260505163021 | 26 | 237 | 4.8 | 9.7 | 0.00 | 0.00 | 0.00 | 69 | 1004.4 |
| 20260505162919 | 26 | 227 | 3.2 | 9.7 | 0.00 | 0.00 | 0.00 | 69 | 1004.3 |
| 20260505162819 | 26 | 181 | 3.2 | 9.7 | 0.00 | 0.00 | 0.00 | 69 | 1004.3 |
| 20260505162719 | 26 | 210 | 4.8 | 9.7 | 0.00 | 0.00 | 0.00 | 69 | 1004.4 |
| 20260505162419 | 26 | 253 | 1.6 | 6.4 | 0.00 | 0.00 | 0.00 | 70 | 1004.4 |
| 20260505162320 | 26 | 248 | 6.4 | 6.4 | 0.00 | 0.00 | 0.00 | 69 | 1004.4 |
| 20260505162019 | 26 | 112 | 6.4 | 8.0 | 0.00 | 0.00 | 0.00 | 70 | 1004.4 |
| 20260505161920 | 26 | 146 | 3.2 | 8.0 | 0.00 | 0.00 | 0.00 | 70 | 1004.6 |
| 20260505161719 | 26 | 287 | 3.2 | 6.4 | 0.00 | 0.00 | 0.00 | 70 | 1004.3 |
| 20260505161620 | 26 | 157 | 0.0 | 6.4 | 0.00 | 0.00 | 0.00 | 70 | 1004.3 |
| 20260505161520 | 26 | 165 | 3.2 | 6.4 | 0.00 | 0.00 | 0.00 | 70 | 1004.4 |
| 20260505161419 | 26 | 240 | 3.2 | 14.5 | 0.00 | 0.00 | 0.00 | 70 | 1004.4 |
| 20260505161320 | 26 | 209 | 6.4 | 9.7 | 0.00 | 0.00 | 0.00 | 70 | 1004.4 |
| 20260505161219 | 26 | 196 | 1.6 | 8.0 | 0.00 | 0.00 | 0.00 | 70 | 1004.4 |
| 20260505161120 | 26 | 246 | 4.8 | 8.0 | 0.00 | 0.00 | 0.00 | 70 | 1004.4 |
| 20260505161020 | 26 | 173 | 3.2 | 8.0 | 0.00 | 0.00 | 0.00 | 71 | 1004.6 |
| 20260505160919 | 26 | 167 | 4.8 | 8.0 | 0.00 | 0.00 | 0.00 | 71 | 1004.6 |
| 20260505160819 | 25 | 71 | 3.2 | 6.4 | 0.00 | 0.00 | 0.00 | 71 | 1004.4 |
| 20260505160520 | 25 | 176 | 3.2 | 9.7 | 0.00 | 0.00 | 0.00 | 71 | 1004.4 |
| 20260505160419 | 25 | 194 | 4.8 | 9.7 | 0.00 | 0.00 | 0.00 | 71 | 1004.4 |
| 20260505160318 | 25 | 180 | 4.8 | 11.3 | 0.00 | 0.00 | 0.00 | 71 | 1004.4 |
| 20260505153020 | 25 | 179 | 1.6 | 11.3 | 0.00 | 0.00 | 0.00 | 73 | 1004.2 |
| 20260505152919 | 25 | 193 | 9.7 | 9.7 | 0.00 | 0.00 | 0.00 | 73 | 1004.0 |
| 20260505152819 | 25 | 191 | 4.8 | 12.9 | 0.00 | 0.00 | 0.00 | 73 | 1004.0 |
| 20260505152719 | 25 | 208 | 4.8 | 9.7 | 0.00 | 0.00 | 0.00 | 73 | 1004.2 |
| 20260505152620 | 25 | 247 | 6.4 | 12.9 | 0.00 | 0.00 | 0.00 | 73 | 1004.4 |
| 20260505152319 | 25 | 217 | 4.8 | 9.7 | 0.00 | 0.00 | 0.00 | 73 | 1004.3 |
| 20260505152219 | 25 | 202 | 4.8 | 9.7 | 0.00 | 0.00 | 0.00 | 73 | 1004.1 |
| 20260505152120 | 25 | 236 | 3.2 | 8.0 | 0.00 | 0.00 | 0.00 | 73 | 1004.3 |
| 20260505152019 | 25 | 163 | 6.4 | 8.0 | 0.00 | 0.00 | 0.00 | 74 | 1004.2 |
| 20260505151719 | 25 | 187 | 3.2 | 9.7 | 0.00 | 0.00 | 0.00 | 75 | 1004.3 |
| 20260505151619 | 25 | 213 | 3.2 | 8.0 | 0.00 | 0.00 | 0.00 | 75 | 1004.3 |
| 20260505151520 | 24 | 195 | 4.8 | 6.4 | 0.00 | 0.00 | 0.00 | 75 | 1004.3 |
| 20260505151419 | 24 | 162 | 0.0 | 6.4 | 0.00 | 0.00 | 0.00 | 76 | 1004.4 |
| 20260505151319 | 24 | 73 | 3.2 | 9.7 | 0.00 | 0.00 | 0.00 | 76 | 1004.6 |
| 20260505151220 | 24 | 195 | 4.8 | 11.3 | 0.00 | 0.00 | 0.00 | 76 | 1004.5 |
| 20260505151120 | 24 | 221 | 6.4 | 11.3 | 0.00 | 0.00 | 0.00 | 76 | 1004.8 |
| 20260505151019 | 24 | 146 | 4.8 | 9.7 | 0.00 | 0.00 | 0.00 | 76 | 1004.7 |
| 20260505150719 | 24 | 112 | 3.2 | 9.7 | 0.00 | 0.00 | 0.00 | 76 | 1004.6 |
| 20260505150619 | 24 | 207 | 3.2 | 9.7 | 0.00 | 0.00 | 0.00 | 76 | 1004.5 |
| 20260505150519 | 24 | 198 | 6.4 | 9.7 | 0.00 | 0.00 | 0.00 | 76 | 1004.6 |
| 20260505150419 | 24 | 154 | 3.2 | 6.4 | 0.00 | 0.00 | 0.00 | 76 | 1004.7 |
| 20260505150319 | 23 | 172 | 3.2 | 6.4 | 0.00 | 0.00 | 0.00 | 76 | 1004.6 |
| 20260505150218 | 23 | 269 | 3.2 | 8.0 | 0.00 | 0.00 | 0.00 | 76 | 1004.5 |
| 20260505150119 | 23 | 213 | 3.2 | 8.0 | 0.00 | 0.00 | 0.00 | 76 | 1004.3 |
| 20260505140618 | 22 | 289 | 9.7 | 9.7 | 0.00 | 0.00 | 0.00 | 80 | 1004.6 |
| 20260505140519 | 22 | 207 | 1.6 | 6.4 | 0.00 | 0.00 | 0.00 | 81 | 1004.7 |
| 20260505140419 | 22 | 198 | 3.2 | 6.4 | 0.00 | 0.00 | 0.00 | 81 | 1004.6 |
| 20260505140318 | 22 | 213 | 6.4 | 6.4 | 0.00 | 0.00 | 0.00 | 81 | 1004.8 |
| 20260505140218 | 22 | 101 | 3.2 | 4.8 | 0.00 | 0.00 | 0.00 | 81 | 1004.7 |
| 20260505140118 | 22 | 215 | 4.8 | 6.4 | 0.00 | 0.00 | 0.00 | 81 | 1004.7 |
| 20260505130219 | 22 | 187 | 6.4 | 6.4 | 0.00 | 0.00 | 0.00 | 83 | 1004.5 |
| 20260505125020 | 21 | 333 | 3.2 | 8.0 | 0.00 | 0.00 | 0.00 | 83 | 1004.2 |
| 20260505124920 | 21 | 161 | 4.8 | 6.4 | 0.00 | 0.00 | 0.00 | 83 | 1004.3 |
| 20260505124820 | 21 | 251 | 3.2 | 6.4 | 0.00 | 0.00 | 0.00 | 83 | 1004.3 |
| 20260505124621 | 21 | 144 | 0.0 | 6.4 | 0.00 | 0.00 | 0.00 | 83 | 1004.2 |
| 20260505124519 | 21 | 198 | 4.8 | 6.4 | 0.00 | 0.00 | 0.00 | 83 | 1004.4 |
| 20260505124420 | 21 | 218 | 3.2 | 8.0 | 0.00 | 0.00 | 0.00 | 83 | 1004.2 |
| 20260505124120 | 21 | 34 | 4.8 | 9.7 | 0.00 | 0.00 | 0.00 | 83 | 1004.3 |
| 20260505124019 | 21 | 173 | 4.8 | 9.7 | 0.00 | 0.00 | 0.00 | 83 | 1004.2 |
| 20260505123919 | 21 | 228 | 3.2 | 9.7 | 0.00 | 0.00 | 0.00 | 83 | 1004.3 |
| 20260505123819 | 21 | 198 | 3.2 | 9.7 | 0.00 | 0.00 | 0.00 | 83 | 1004.1 |
| 20260505123720 | 21 | 206 | 3.2 | 9.7 | 0.00 | 0.00 | 0.00 | 83 | 1004.2 |
| 20260505123619 | 21 | 168 | 4.8 | 9.7 | 0.00 | 0.00 | 0.00 | 83 | 1004.0 |
| 20260505123519 | 21 | 220 | 4.8 | 9.7 | 0.00 | 0.00 | 0.00 | 83 | 1004.2 |
| 20260505123419 | 21 | 230 | 9.7 | 9.7 | 0.00 | 0.00 | 0.00 | 84 | 1004.1 |
| 20260505123319 | 21 | 179 | 4.8 | 8.0 | 0.00 | 0.00 | 0.00 | 84 | 1004.0 |
| 20260505123220 | 21 | 228 | 3.2 | 4.8 | 0.00 | 0.00 | 0.00 | 83 | 1004.2 |
| 20260505123119 | 21 | 238 | 1.6 | 9.7 | 0.00 | 0.00 | 0.00 | 83 | 1004.0 |
| 20260505123019 | 21 | 80 | 6.4 | 9.7 | 0.00 | 0.00 | 0.00 | 84 | 1003.9 |
| 20260505122720 | 21 | 211 | 3.2 | 8.0 | 0.00 | 0.00 | 0.00 | 84 | 1003.7 |
| 20260505122619 | 21 | 120 | 3.2 | 8.0 | 0.00 | 0.00 | 0.00 | 84 | 1003.9 |
| 20260505122519 | 21 | 207 | 4.8 | 6.4 | 0.00 | 0.00 | 0.00 | 84 | 1003.7 |
| 20260505122419 | 21 | 286 | 3.2 | 4.8 | 0.00 | 0.00 | 0.00 | 84 | 1003.9 |
| 20260505122319 | 21 | 224 | 4.8 | 9.7 | 0.00 | 0.00 | 0.00 | 84 | 1004.0 |
| 20260505122219 | 21 | 256 | 3.2 | 9.7 | 0.00 | 0.00 | 0.00 | 84 | 1003.8 |
| 20260505122120 | 21 | 311 | 6.4 | 6.4 | 0.00 | 0.00 | 0.00 | 84 | 1003.9 |
| 20260505122020 | 21 | 236 | 3.2 | 6.4 | 0.00 | 0.00 | 0.00 | 84 | 1003.6 |
| 20260505121719 | 21 | 5 | 3.2 | 8.0 | 0.00 | 0.00 | 0.00 | 84 | 1003.8 |
| 20260505121619 | 21 | 146 | 4.8 | 8.0 | 0.00 | 0.00 | 0.00 | 84 | 1003.8 |
| 20260505121519 | 21 | 180 | 8.0 | 8.0 | 0.00 | 0.00 | 0.00 | 84 | 1003.8 |
| 20260505121219 | 21 | 259 | 6.4 | 6.4 | 0.00 | 0.00 | 0.00 | 83 | 1003.8 |
| 20260505121120 | 21 | 25 | 1.6 | 9.7 | 0.00 | 0.00 | 0.00 | 83 | 1003.7 |
| 20260505121019 | 21 | 151 | 3.2 | 11.3 | 0.00 | 0.00 | 0.00 | 83 | 1003.7 |
| 20260505120919 | 21 | 243 | 6.4 | 11.3 | 0.00 | 0.00 | 0.00 | 83 | 1004.0 |
| 20260505120819 | 21 | 187 | 4.8 | 9.7 | 0.00 | 0.00 | 0.00 | 83 | 1003.9 |
| 20260505120719 | 21 | 219 | 6.4 | 9.7 | 0.00 | 0.00 | 0.00 | 83 | 1003.8 |
| 20260505120619 | 21 | 193 | 3.2 | 6.4 | 0.00 | 0.00 | 0.00 | 83 | 1004.0 |
| 20260505120520 | 21 | 177 | 3.2 | 8.0 | 0.00 | 0.00 | 0.00 | 83 | 1003.7 |
| 20260505120419 | 21 | 213 | 6.4 | 11.3 | 0.00 | 0.00 | 0.00 | 83 | 1003.8 |
| 20260505120319 | 21 | 216 | 4.8 | 11.3 | 0.00 | 0.00 | 0.00 | 83 | 1003.8 |
| 20260505120219 | 21 | 281 | 3.2 | 6.4 | 0.00 | 0.00 | 0.00 | 83 | 1003.8 |
| 20260505115919 | 21 | 195 | 4.8 | 6.4 | 0.00 | 0.00 | 0.00 | 83 | 1003.7 |
| 20260505115819 | 21 | 119 | 3.2 | 6.4 | 0.00 | 0.00 | 0.00 | 83 | 1003.4 |
| 20260505115719 | 21 | 215 | 6.4 | 8.0 | 0.00 | 0.00 | 0.00 | 83 | 1003.6 |
| 20260505115619 | 21 | 186 | 4.8 | 8.0 | 0.00 | 0.00 | 0.00 | 83 | 1003.9 |
| 20260505115519 | 21 | 37 | 3.2 | 8.0 | 0.00 | 0.00 | 0.00 | 83 | 1003.9 |
| 20260505115219 | 21 | 204 | 3.2 | 6.4 | 0.00 | 0.00 | 0.00 | 83 | 1003.6 |
| 20260505115118 | 21 | 171 | 4.8 | 8.0 | 0.00 | 0.00 | 0.00 | 83 | 1003.6 |
| 20260505115019 | 21 | 191 | 3.2 | 8.0 | 0.00 | 0.00 | 0.00 | 83 | 1003.5 |
| 20260505114919 | 21 | 279 | 3.2 | 8.0 | 0.00 | 0.00 | 0.00 | 83 | 1003.5 |
| 20260505114718 | 21 | 157 | 4.8 | 6.4 | 0.00 | 0.00 | 0.00 | 83 | 1003.7 |
| 20260505114620 | 21 | 204 | 3.2 | 6.4 | 0.00 | 0.00 | 0.00 | 83 | 1003.5 |
| 20260505114518 | 21 | 212 | 4.8 | 6.4 | 0.00 | 0.00 | 0.00 | 83 | 1003.4 |
| 20260505114418 | 21 | 149 | 3.2 | 8.0 | 0.00 | 0.00 | 0.00 | 83 | 1003.5 |
| 20260505114319 | 21 | 242 | 4.8 | 8.0 | 0.00 | 0.00 | 0.00 | 83 | 1003.8 |
| 20260505114219 | 21 | 199 | 3.2 | 6.4 | 0.00 | 0.00 | 0.00 | 83 | 1003.8 |
| 20260505114119 | 21 | 281 | 3.2 | 6.4 | 0.00 | 0.00 | 0.00 | 83 | 1003.7 |
| 20260505113819 | 21 | 180 | 0.0 | 4.8 | 0.00 | 0.00 | 0.00 | 83 | 1003.5 |
| 20260505113320 | 21 | 206 | 4.8 | 8.0 | 0.00 | 0.00 | 0.00 | 83 | 1003.7 |
| 20260505113219 | 21 | 157 | 3.2 | 6.4 | 0.00 | 0.00 | 0.00 | 83 | 1003.6 |
| 20260505112919 | 21 | 26 | 1.6 | 6.4 | 0.00 | 0.00 | 0.00 | 83 | 1003.4 |
| 20260505112819 | 21 | 165 | 1.6 | 6.4 | 0.00 | 0.00 | 0.00 | 83 | 1003.5 |
| 20260505112719 | 21 | 183 | 1.6 | 8.0 | 0.00 | 0.00 | 0.00 | 83 | 1003.7 |
| 20260505112620 | 21 | 197 | 8.0 | 8.0 | 0.00 | 0.00 | 0.00 | 83 | 1003.4 |
| 20260505112519 | 21 | 121 | 3.2 | 4.8 | 0.00 | 0.00 | 0.00 | 82 | 1003.4 |
| 20260505112420 | 21 | 106 | 0.0 | 8.0 | 0.00 | 0.00 | 0.00 | 82 | 1003.7 |
| 20260505112119 | 21 | 203 | 3.2 | 6.4 | 0.00 | 0.00 | 0.00 | 82 | 1003.5 |
| 20260505112019 | 21 | 204 | 4.8 | 8.0 | 0.00 | 0.00 | 0.00 | 82 | 1003.4 |
| 20260505111919 | 21 | 159 | 6.4 | 8.0 | 0.00 | 0.00 | 0.00 | 82 | 1003.4 |
| 20260505111819 | 21 | 205 | 4.8 | 6.4 | 0.00 | 0.00 | 0.00 | 82 | 1003.4 |
| 20260505111719 | 21 | 193 | 1.6 | 4.8 | 0.00 | 0.00 | 0.00 | 82 | 1003.5 |
| 20260505111619 | 21 | 309 | 1.6 | 6.4 | 0.00 | 0.00 | 0.00 | 82 | 1003.4 |
| 20260505111519 | 21 | 182 | 6.4 | 6.4 | 0.00 | 0.00 | 0.00 | 82 | 1003.5 |
| 20260505111019 | 21 | 221 | 3.2 | 8.0 | 0.00 | 0.00 | 0.00 | 82 | 1003.8 |
| 20260505110919 | 21 | 241 | 3.2 | 8.0 | 0.00 | 0.00 | 0.00 | 82 | 1003.7 |
| 20260505110820 | 21 | 218 | 3.2 | 6.4 | 0.00 | 0.00 | 0.00 | 82 | 1003.6 |
| 20260505110719 | 21 | 41 | 4.8 | 8.0 | 0.00 | 0.00 | 0.00 | 82 | 1003.6 |
| 20260505110620 | 21 | 192 | 6.4 | 9.7 | 0.00 | 0.00 | 0.00 | 82 | 1003.5 |
| 20260505110419 | 21 | 185 | 4.8 | 6.4 | 0.00 | 0.00 | 0.00 | 83 | 1003.8 |
| 20260505110318 | 21 | 224 | 3.2 | 8.0 | 0.00 | 0.00 | 0.00 | 83 | 1003.8 |
| 20260505110218 | 21 | 203 | 6.4 | 8.0 | 0.00 | 0.00 | 0.00 | 83 | 1003.9 |
| 20260505110118 | 21 | 117 | 0.0 | 6.4 | 0.00 | 0.00 | 0.00 | 83 | 1003.5 |
| 20260505102219 | 21 | 196 | 3.2 | 6.4 | 0.00 | 0.00 | 0.00 | 82 | 1003.5 |
| 20260505102119 | 21 | 200 | 6.4 | 8.0 | 0.00 | 0.00 | 0.00 | 82 | 1003.7 |
| 20260505101818 | 21 | 188 | 4.8 | 6.4 | 0.00 | 0.00 | 0.00 | 82 | 1003.7 |
| 20260505101719 | 21 | 214 | 0.0 | 9.7 | 0.00 | 0.00 | 0.00 | 82 | 1003.7 |
| 20260505101618 | 21 | 220 | 4.8 | 6.4 | 0.00 | 0.00 | 0.00 | 82 | 1003.6 |
| 20260505101519 | 21 | 203 | 3.2 | 6.4 | 0.00 | 0.00 | 0.00 | 82 | 1003.7 |
| 20260505101418 | 21 | 208 | 1.6 | 4.8 | 0.00 | 0.00 | 0.00 | 82 | 1003.7 |
| 20260505101319 | 21 | 61 | 3.2 | 9.7 | 0.00 | 0.00 | 0.00 | 82 | 1003.5 |
| 20260505101218 | 21 | 199 | 4.8 | 9.7 | 0.00 | 0.00 | 0.00 | 82 | 1003.8 |
| 20260505101119 | 21 | 142 | 0.0 | 8.0 | 0.00 | 0.00 | 0.00 | 82 | 1003.8 |
| 20260505101019 | 21 | 175 | 1.6 | 9.7 | 0.00 | 0.00 | 0.00 | 82 | 1003.6 |
| 20260505100919 | 21 | 176 | 3.2 | 6.4 | 0.00 | 0.00 | 0.00 | 82 | 1003.5 |
| 20260505100819 | 21 | 96 | 1.6 | 6.4 | 0.00 | 0.00 | 0.00 | 82 | 1003.4 |
| 20260505100719 | 21 | 186 | 4.8 | 8.0 | 0.00 | 0.00 | 0.00 | 82 | 1003.6 |
| 20260505100619 | 21 | 141 | 3.2 | 8.0 | 0.00 | 0.00 | 0.00 | 82 | 1003.5 |
| 20260505100519 | 21 | 177 | 6.4 | 8.0 | 0.00 | 0.00 | 0.00 | 82 | 1003.5 |
| 20260505100419 | 21 | 212 | 4.8 | 8.0 | 0.00 | 0.00 | 0.00 | 82 | 1003.8 |
| 20260505100218 | 21 | 109 | 0.0 | 6.4 | 0.00 | 0.00 | 0.00 | 82 | 1003.5 |
| 20260505100119 | 21 | 142 | 3.2 | 6.4 | 0.00 | 0.00 | 0.00 | 82 | 1003.7 |
| 20260505100018 | 21 | 265 | 3.2 | 8.0 | 0.00 | 0.00 | 0.00 | 82 | 1003.6 |
| 20260505095919 | 21 | 167 | 1.6 | 9.7 | 0.00 | 0.00 | 0.00 | 82 | 1003.5 |
| 20260505095819 | 21 | 224 | 6.4 | 9.7 | 0.00 | 0.00 | 0.00 | 82 | 1003.5 |
| 20260505095718 | 21 | 112 | 3.2 | 8.0 | 0.00 | 0.00 | 0.00 | 82 | 1003.6 |
| 20260505095618 | 21 | 138 | 0.0 | 8.0 | 0.00 | 0.00 | 0.00 | 82 | 1003.7 |
| 20260505095518 | 21 | 203 | 6.4 | 6.4 | 0.00 | 0.00 | 0.00 | 82 | 1003.7 |
| 20260505095418 | 21 | 284 | 1.6 | 8.0 | 0.00 | 0.00 | 0.00 | 82 | 1003.6 |
| 20260505095318 | 21 | 172 | 4.8 | 8.0 | 0.00 | 0.00 | 0.00 | 82 | 1003.6 |
| 20260505094819 | 21 | 171 | 4.8 | 6.4 | 0.00 | 0.00 | 0.00 | 82 | 1004.0 |
| 20260505094719 | 21 | 156 | 4.8 | 6.4 | 0.00 | 0.00 | 0.00 | 82 | 1003.9 |
| 20260505094618 | 21 | 247 | 1.6 | 9.7 | 0.00 | 0.00 | 0.00 | 82 | 1003.8 |
| 20260505094518 | 21 | 220 | 3.2 | 9.7 | 0.00 | 0.00 | 0.00 | 82 | 1003.8 |
| 20260505094218 | 21 | 186 | 4.8 | 6.4 | 0.00 | 0.00 | 0.00 | 82 | 1003.7 |
| 20260505094118 | 21 | 101 | 1.6 | 6.4 | 0.00 | 0.00 | 0.00 | 83 | 1003.8 |
| 20260505094019 | 21 | 196 | 0.0 | 9.7 | 0.00 | 0.00 | 0.00 | 83 | 1003.7 |
| 20260505093720 | 21 | 167 | 4.8 | 8.0 | 0.00 | 0.00 | 0.00 | 83 | 1004.0 |
| 20260505093618 | 21 | 215 | 4.8 | 9.7 | 0.00 | 0.00 | 0.00 | 83 | 1004.0 |
| 20260505093518 | 21 | 223 | 9.7 | 9.7 | 0.00 | 0.00 | 0.00 | 83 | 1004.0 |
| 20260505093319 | 21 | 291 | 3.2 | 4.8 | 0.00 | 0.00 | 0.00 | 83 | 1003.9 |
| 20260505093219 | 21 | 181 | 3.2 | 6.4 | 0.00 | 0.00 | 0.00 | 83 | 1003.5 |
| 20260505093019 | 21 | 285 | 1.6 | 6.4 | 0.00 | 0.00 | 0.00 | 83 | 1003.8 |
| 20260505092919 | 21 | 66 | 3.2 | 6.4 | 0.00 | 0.00 | 0.00 | 83 | 1003.8 |
| 20260505092819 | 21 | 215 | 4.8 | 6.4 | 0.00 | 0.00 | 0.00 | 83 | 1003.8 |
| 20260505092718 | 21 | 168 | 6.4 | 6.4 | 0.00 | 0.00 | 0.00 | 83 | 1003.7 |
| 20260505092619 | 21 | 20 | 3.2 | 6.4 | 0.00 | 0.00 | 0.00 | 83 | 1004.0 |
| 20260505092318 | 21 | 11 | 0.0 | 4.8 | 0.00 | 0.00 | 0.00 | 83 | 1003.8 |
| 20260505092219 | 21 | 197 | 4.8 | 9.7 | 0.00 | 0.00 | 0.00 | 83 | 1003.9 |
| 20260505092119 | 21 | 226 | 6.4 | 9.7 | 0.00 | 0.00 | 0.00 | 83 | 1003.8 |
| 20260505092018 | 21 | 151 | 3.2 | 9.7 | 0.00 | 0.00 | 0.00 | 83 | 1003.8 |
| 20260505091918 | 21 | 179 | 4.8 | 9.7 | 0.00 | 0.00 | 0.00 | 83 | 1003.9 |
| 20260505091719 | 21 | 329 | 3.2 | 8.0 | 0.00 | 0.00 | 0.00 | 83 | 1003.9 |
| 20260505091619 | 21 | 183 | 4.8 | 11.3 | 0.00 | 0.00 | 0.00 | 83 | 1004.1 |
| 20260505091519 | 21 | 193 | 6.4 | 9.7 | 0.00 | 0.00 | 0.00 | 83 | 1004.0 |
| 20260505091218 | 21 | 226 | 1.6 | 4.8 | 0.00 | 0.00 | 0.00 | 83 | 1003.9 |
| 20260505091119 | 21 | 282 | 4.8 | 4.8 | 0.00 | 0.00 | 0.00 | 83 | 1004.0 |
| 20260505091018 | 21 | 157 | 4.8 | 6.4 | 0.00 | 0.00 | 0.00 | 83 | 1004.1 |
| 20260505090919 | 21 | 343 | 4.8 | 6.4 | 0.00 | 0.00 | 0.00 | 83 | 1004.0 |
| 20260505090819 | 21 | 265 | 3.2 | 8.0 | 0.00 | 0.00 | 0.00 | 83 | 1004.1 |
| 20260505090719 | 21 | 81 | 4.8 | 8.0 | 0.00 | 0.00 | 0.00 | 83 | 1004.1 |
| 20260505090419 | 21 | 346 | 3.2 | 9.7 | 0.00 | 0.00 | 0.00 | 83 | 1004.0 |
| 20260505090319 | 21 | 151 | 3.2 | 6.4 | 0.00 | 0.00 | 0.00 | 83 | 1004.1 |
| 20260505090018 | 21 | 208 | 3.2 | 8.0 | 0.00 | 0.00 | 0.00 | 83 | 1004.0 |
| 20260505085918 | 21 | 180 | 0.0 | 8.0 | 0.00 | 0.00 | 0.00 | 83 | 1004.0 |
| 20260505085819 | 21 | 200 | 3.2 | 8.0 | 0.00 | 0.00 | 0.00 | 83 | 1004.0 |
| 20260505085719 | 21 | 243 | 4.8 | 6.4 | 0.00 | 0.00 | 0.00 | 83 | 1004.1 |
| 20260505085619 | 21 | 126 | 4.8 | 6.4 | 0.00 | 0.00 | 0.00 | 83 | 1004.1 |
| 20260505085518 | 21 | 196 | 6.4 | 6.4 | 0.00 | 0.00 | 0.00 | 83 | 1004.1 |
| 20260505085418 | 21 | 193 | 3.2 | 4.8 | 0.00 | 0.00 | 0.00 | 83 | 1004.0 |
| 20260505085319 | 21 | 105 | 1.6 | 4.8 | 0.00 | 0.00 | 0.00 | 83 | 1004.0 |
| 20260505085219 | 21 | 220 | 3.2 | 4.8 | 0.00 | 0.00 | 0.00 | 83 | 1003.8 |
| 20260505085118 | 21 | 232 | 0.0 | 4.8 | 0.00 | 0.00 | 0.00 | 83 | 1003.9 |
| 20260505085018 | 21 | 96 | 3.2 | 6.4 | 0.00 | 0.00 | 0.00 | 83 | 1003.9 |
| 20260505084918 | 21 | 109 | 4.8 | 8.0 | 0.00 | 0.00 | 0.00 | 83 | 1004.1 |
| 20260505084818 | 21 | 275 | 1.6 | 8.0 | 0.00 | 0.00 | 0.00 | 83 | 1004.2 |
| 20260505084719 | 21 | 183 | 4.8 | 6.4 | 0.00 | 0.00 | 0.00 | 83 | 1004.0 |
| 20260505084618 | 21 | 178 | 1.6 | 6.4 | 0.00 | 0.00 | 0.00 | 83 | 1004.0 |
| 20260505084518 | 21 | 189 | 3.2 | 6.4 | 0.00 | 0.00 | 0.00 | 83 | 1003.9 |
| 20260505084218 | 21 | 189 | 6.4 | 8.0 | 0.00 | 0.00 | 0.00 | 82 | 1004.1 |
| 20260505084119 | 21 | 166 | 0.0 | 4.8 | 0.00 | 0.00 | 0.00 | 82 | 1004.1 |
| 20260505083919 | 21 | 186 | 1.6 | 8.0 | 0.00 | 0.00 | 0.00 | 82 | 1004.0 |
| 20260505083820 | 21 | 250 | 3.2 | 8.0 | 0.00 | 0.00 | 0.00 | 82 | 1004.1 |
| 20260505083719 | 21 | 135 | 3.2 | 6.4 | 0.00 | 0.00 | 0.00 | 82 | 1004.0 |
| 20260505083619 | 21 | 185 | 1.6 | 6.4 | 0.00 | 0.00 | 0.00 | 82 | 1004.4 |
| 20260505083519 | 21 | 246 | 3.2 | 4.8 | 0.00 | 0.00 | 0.00 | 82 | 1004.1 |
| 20260505083419 | 21 | 196 | 3.2 | 6.4 | 0.00 | 0.00 | 0.00 | 82 | 1004.1 |
| 20260505083320 | 21 | 176 | 3.2 | 6.4 | 0.00 | 0.00 | 0.00 | 82 | 1004.1 |
| 20260505083019 | 21 | 151 | 1.6 | 9.7 | 0.00 | 0.00 | 0.00 | 82 | 1004.1 |
| 20260505082919 | 21 | 201 | 3.2 | 6.4 | 0.00 | 0.00 | 0.00 | 82 | 1004.2 |
| 20260505082719 | 21 | 260 | 1.6 | 4.8 | 0.00 | 0.00 | 0.00 | 82 | 1004.1 |
| 20260505082620 | 21 | 159 | 0.0 | 8.0 | 0.00 | 0.00 | 0.00 | 82 | 1004.1 |
| 20260505082519 | 21 | 250 | 3.2 | 8.0 | 0.00 | 0.00 | 0.00 | 82 | 1004.1 |
| 20260505082419 | 21 | 203 | 4.8 | 6.4 | 0.00 | 0.00 | 0.00 | 82 | 1004.1 |
| 20260505082319 | 21 | 201 | 0.0 | 6.4 | 0.00 | 0.00 | 0.00 | 82 | 1004.1 |
| 20260505082220 | 21 | 159 | 1.6 | 4.8 | 0.00 | 0.00 | 0.00 | 82 | 1004.1 |
| 20260505082119 | 21 | 198 | 0.0 | 3.2 | 0.00 | 0.00 | 0.00 | 82 | 1004.2 |
| 20260505082019 | 21 | 208 | 3.2 | 3.2 | 0.00 | 0.00 | 0.00 | 82 | 1004.0 |
| 20260505081719 | 21 | 163 | 3.2 | 8.0 | 0.00 | 0.00 | 0.00 | 82 | 1004.1 |
| 20260505081619 | 21 | 192 | 4.8 | 8.0 | 0.00 | 0.00 | 0.00 | 82 | 1004.3 |
| 20260505081519 | 21 | 71 | 1.6 | 6.4 | 0.00 | 0.00 | 0.00 | 82 | 1004.0 |
| 20260505081419 | 21 | 130 | 3.2 | 9.7 | 0.00 | 0.00 | 0.00 | 82 | 1004.3 |
| 20260505081119 | 21 | 127 | 3.2 | 6.4 | 0.00 | 0.00 | 0.00 | 81 | 1004.2 |
| 20260505081019 | 21 | 242 | 3.2 | 6.4 | 0.00 | 0.00 | 0.00 | 81 | 1004.0 |
| 20260505080919 | 21 | 12 | 1.6 | 6.4 | 0.00 | 0.00 | 0.00 | 81 | 1004.2 |
| 20260505080819 | 21 | 63 | 3.2 | 6.4 | 0.00 | 0.00 | 0.00 | 81 | 1004.2 |
| 20260505080719 | 21 | 256 | 3.2 | 11.3 | 0.00 | 0.00 | 0.00 | 81 | 1004.2 |
| 20260505080619 | 21 | 164 | 6.4 | 11.3 | 0.00 | 0.00 | 0.00 | 81 | 1004.2 |
| 20260505080419 | 21 | 177 | 0.0 | 6.4 | 0.00 | 0.00 | 0.00 | 81 | 1004.2 |
| 20260505080320 | 21 | 183 | 4.8 | 6.4 | 0.00 | 0.00 | 0.00 | 81 | 1004.4 |
| 20260505080119 | 21 | 171 | 1.6 | 3.2 | 0.00 | 0.00 | 0.00 | 81 | 1004.3 |
| 20260505080019 | 21 | 95 | 1.6 | 6.4 | 0.00 | 0.00 | 0.00 | 81 | 1004.1 |
| 20260505075620 | 21 | 199 | 4.8 | 8.0 | 0.00 | 0.00 | 0.00 | 81 | 1004.4 |
| 20260505075519 | 21 | 184 | 3.2 | 6.4 | 0.00 | 0.00 | 0.00 | 81 | 1004.1 |
| 20260505075319 | 21 | 284 | 0.0 | 6.4 | 0.00 | 0.00 | 0.00 | 81 | 1004.1 |
| 20260505075219 | 21 | 186 | 3.2 | 8.0 | 0.00 | 0.00 | 0.00 | 80 | 1004.3 |
| 20260505075119 | 21 | 169 | 4.8 | 8.0 | 0.00 | 0.00 | 0.00 | 80 | 1004.4 |
| 20260505075019 | 21 | 180 | 0.0 | 6.4 | 0.00 | 0.00 | 0.00 | 80 | 1004.2 |
| 20260505074919 | 21 | 165 | 4.8 | 6.4 | 0.00 | 0.00 | 0.00 | 80 | 1004.3 |
| 20260505074819 | 21 | 204 | 3.2 | 8.0 | 0.00 | 0.00 | 0.00 | 80 | 1004.3 |
| 20260505074519 | 21 | 185 | 4.8 | 9.7 | 0.00 | 0.00 | 0.00 | 80 | 1004.4 |
| 20260505074419 | 21 | 248 | 1.6 | 4.8 | 0.00 | 0.00 | 0.00 | 80 | 1004.3 |
| 20260505074319 | 21 | 65 | 0.0 | 4.8 | 0.00 | 0.00 | 0.00 | 80 | 1004.5 |
| 20260505074219 | 22 | 181 | 1.6 | 4.8 | 0.00 | 0.00 | 0.00 | 80 | 1004.4 |
| 20260505074120 | 22 | 82 | 3.2 | 4.8 | 0.00 | 0.00 | 0.00 | 80 | 1004.5 |
| 20260505074019 | 22 | 238 | 1.6 | 4.8 | 0.00 | 0.00 | 0.00 | 80 | 1004.5 |
| 20260505073918 | 22 | 136 | 3.2 | 11.3 | 0.00 | 0.00 | 0.00 | 79 | 1004.5 |
| 20260505073819 | 22 | 206 | 3.2 | 11.3 | 0.00 | 0.00 | 0.00 | 79 | 1004.7 |
| 20260505073719 | 22 | 209 | 3.2 | 6.4 | 0.00 | 0.00 | 0.00 | 79 | 1004.4 |
| 20260505073618 | 22 | 250 | 1.6 | 6.4 | 0.00 | 0.00 | 0.00 | 79 | 1004.6 |
| 20260505073418 | 22 | 180 | 0.0 | 8.0 | 0.00 | 0.00 | 0.00 | 79 | 1004.5 |
| 20260505073318 | 22 | 251 | 8.0 | 8.0 | 0.00 | 0.00 | 0.00 | 79 | 1004.6 |
| 20260505073219 | 22 | 266 | 4.8 | 4.8 | 0.00 | 0.00 | 0.00 | 79 | 1004.6 |
| 20260505073119 | 22 | 151 | 3.2 | 6.4 | 0.00 | 0.00 | 0.00 | 79 | 1004.6 |
| 20260505073018 | 22 | 172 | 0.0 | 6.4 | 0.00 | 0.00 | 0.00 | 79 | 1004.6 |
| 20260505072818 | 22 | 259 | 1.6 | 6.4 | 0.00 | 0.00 | 0.00 | 79 | 1004.6 |
| 20260505072718 | 22 | 208 | 3.2 | 8.0 | 0.00 | 0.00 | 0.00 | 79 | 1004.8 |
| 20260505072618 | 22 | 216 | 0.0 | 8.0 | 0.00 | 0.00 | 0.00 | 78 | 1004.9 |
| 20260505072419 | 22 | 164 | 3.2 | 9.7 | 0.00 | 0.00 | 0.00 | 78 | 1004.8 |
| 20260505072319 | 22 | 207 | 4.8 | 9.7 | 0.00 | 0.00 | 0.00 | 78 | 1004.9 |
| 20260505072219 | 22 | 166 | 4.8 | 6.4 | 0.00 | 0.00 | 0.00 | 78 | 1004.9 |
| 20260505071918 | 22 | 170 | 4.8 | 8.0 | 0.00 | 0.00 | 0.00 | 78 | 1004.7 |
| 20260505071619 | 22 | 229 | 3.2 | 6.4 | 0.00 | 0.00 | 0.00 | 78 | 1005.0 |
| 20260505071519 | 22 | 231 | 4.8 | 6.4 | 0.00 | 0.00 | 0.00 | 78 | 1005.0 |
| 20260505071418 | 22 | 103 | 4.8 | 6.4 | 0.00 | 0.00 | 0.00 | 78 | 1005.0 |